Multibeam Report for MV1104


Ship Name: Melville
Chief Scientist: Berelson, William
University of Southern California
Source Organization: UNOLS R2R
Start Date: 2011-03-23
End Date: 2011-04-23


View ISO Metadata

Visit the full NCEI Bathymetry Viewer


Multibeam Bathymetry

Cruise Details

Project: Documenting N2 fixation in N deficient waters of the Eastern Tropical South Pacific
Instrument: Kongsberg EM122

Data Quality

Number of Files: 1038
Number of Records: 206960
BATHYMETRY DATA Quantity Percentage
Number of Beams 89406720 100%
Number of Good Beams 76951415 86.07%
Number of Zero Beams 0 0%
Number of Flagged Beams 12455305 13.93%

Navigation Totals

Total Time: 505.86 hours
Total Track Length: 8251.4745 km
Average Speed: 16.312 km/hr (8.8078 knots)

Cruise Bounds

Northern Extent: -9.816748
Southern Extent: -32.48901
Western Extent: -100.20858
Eastern Extent: -71.93387

Limits

Minimum Sonar Depth 1.2396 Maximum Sonar Depth 8.3948
Minimum Altitude 1543.3494 Maximum Altitude 7002.6631
Minimum Depth 1548.9027 Maximum Depth 8160.4546

File Information

Full Resolution Bathymetry as collected (raw): 1035

Files File Size Description
0000_20110323_163042_melville.all.mb58.gz 29.93MB Kongsberg multibeam vendor format
0000_20110323_173346_melville.all.mb58.gz 31.11MB Kongsberg multibeam vendor format
0001_20110323_170042_melville.all.mb58.gz 4.78MB Kongsberg multibeam vendor format
0001_20110323_180352_melville.all.mb58.gz 26.93MB Kongsberg multibeam vendor format
0002_20110323_183347_melville.all.mb58.gz 24.63MB Kongsberg multibeam vendor format
0003_20110323_190358_melville.all.mb58.gz 24.45MB Kongsberg multibeam vendor format
0004_20110323_193358_melville.all.mb58.gz 24.33MB Kongsberg multibeam vendor format
0005_20110323_200349_melville.all.mb58.gz 24.33MB Kongsberg multibeam vendor format
0006_20110323_203349_melville.all.mb58.gz 24.03MB Kongsberg multibeam vendor format
0007_20110323_210347_melville.all.mb58.gz 24.14MB Kongsberg multibeam vendor format
0008_20110323_213403_melville.all.mb58.gz 23.76MB Kongsberg multibeam vendor format
0009_20110323_220404_melville.all.mb58.gz 23.29MB Kongsberg multibeam vendor format
0010_20110323_223354_melville.all.mb58.gz 6.04MB Kongsberg multibeam vendor format
0011_20110323_225439_melville.all.mb58.gz 24.14MB Kongsberg multibeam vendor format
0012_20110323_232452_melville.all.mb58.gz 24.12MB Kongsberg multibeam vendor format
0013_20110323_235440_melville.all.mb58.gz 24.13MB Kongsberg multibeam vendor format
0014_20110324_002449_melville.all.mb58.gz 24.22MB Kongsberg multibeam vendor format
0015_20110324_005452_melville.all.mb58.gz 24.19MB Kongsberg multibeam vendor format
0016_20110324_012455_melville.all.mb58.gz 24.00MB Kongsberg multibeam vendor format
0017_20110324_015445_melville.all.mb58.gz 24.08MB Kongsberg multibeam vendor format
0018_20110324_022448_melville.all.mb58.gz 24.07MB Kongsberg multibeam vendor format
0019_20110324_025449_melville.all.mb58.gz 23.99MB Kongsberg multibeam vendor format
0020_20110324_032441_melville.all.mb58.gz 24.27MB Kongsberg multibeam vendor format
0021_20110324_035449_melville.all.mb58.gz 24.19MB Kongsberg multibeam vendor format
0022_20110324_042443_melville.all.mb58.gz 24.35MB Kongsberg multibeam vendor format
0023_20110324_045447_melville.all.mb58.gz 24.28MB Kongsberg multibeam vendor format
0024_20110324_052457_melville.all.mb58.gz 23.93MB Kongsberg multibeam vendor format
0025_20110324_055447_melville.all.mb58.gz 24.23MB Kongsberg multibeam vendor format
0026_20110324_062446_melville.all.mb58.gz 24.12MB Kongsberg multibeam vendor format
0027_20110324_065445_melville.all.mb58.gz 24.09MB Kongsberg multibeam vendor format
0028_20110324_072443_melville.all.mb58.gz 24.30MB Kongsberg multibeam vendor format
0029_20110324_075449_melville.all.mb58.gz 24.18MB Kongsberg multibeam vendor format
0030_20110324_082455_melville.all.mb58.gz 24.17MB Kongsberg multibeam vendor format
0031_20110324_085444_melville.all.mb58.gz 24.27MB Kongsberg multibeam vendor format
0032_20110324_092452_melville.all.mb58.gz 24.07MB Kongsberg multibeam vendor format
0033_20110324_095441_melville.all.mb58.gz 24.35MB Kongsberg multibeam vendor format
0034_20110324_102439_melville.all.mb58.gz 24.07MB Kongsberg multibeam vendor format
0035_20110324_105444_melville.all.mb58.gz 23.97MB Kongsberg multibeam vendor format
0036_20110324_112440_melville.all.mb58.gz 24.13MB Kongsberg multibeam vendor format
0037_20110324_115444_melville.all.mb58.gz 24.16MB Kongsberg multibeam vendor format
0038_20110324_122449_melville.all.mb58.gz 24.03MB Kongsberg multibeam vendor format
0039_20110324_125448_melville.all.mb58.gz 23.95MB Kongsberg multibeam vendor format
0040_20110324_132449_melville.all.mb58.gz 24.11MB Kongsberg multibeam vendor format
0041_20110324_135453_melville.all.mb58.gz 23.90MB Kongsberg multibeam vendor format
0042_20110324_142441_melville.all.mb58.gz 24.03MB Kongsberg multibeam vendor format
0043_20110324_145447_melville.all.mb58.gz 23.92MB Kongsberg multibeam vendor format
0044_20110324_152443_melville.all.mb58.gz 24.01MB Kongsberg multibeam vendor format
0045_20110324_155456_melville.all.mb58.gz 23.94MB Kongsberg multibeam vendor format
0046_20110324_162450_melville.all.mb58.gz 23.93MB Kongsberg multibeam vendor format
0047_20110324_165442_melville.all.mb58.gz 23.97MB Kongsberg multibeam vendor format
0048_20110324_172440_melville.all.mb58.gz 24.24MB Kongsberg multibeam vendor format
0049_20110324_175450_melville.all.mb58.gz 23.80MB Kongsberg multibeam vendor format
0050_20110324_182442_melville.all.mb58.gz 23.91MB Kongsberg multibeam vendor format
0051_20110324_185441_melville.all.mb58.gz 24.05MB Kongsberg multibeam vendor format
0052_20110324_192447_melville.all.mb58.gz 23.91MB Kongsberg multibeam vendor format
0053_20110324_195447_melville.all.mb58.gz 23.88MB Kongsberg multibeam vendor format
0054_20110324_202439_melville.all.mb58.gz 23.93MB Kongsberg multibeam vendor format
0055_20110324_205451_melville.all.mb58.gz 24.12MB Kongsberg multibeam vendor format
0056_20110324_212454_melville.all.mb58.gz 23.95MB Kongsberg multibeam vendor format
0057_20110324_215439_melville.all.mb58.gz 23.86MB Kongsberg multibeam vendor format
0058_20110324_222440_melville.all.mb58.gz 24.12MB Kongsberg multibeam vendor format
0059_20110324_225455_melville.all.mb58.gz 24.31MB Kongsberg multibeam vendor format
0060_20110324_232445_melville.all.mb58.gz 24.40MB Kongsberg multibeam vendor format
0061_20110324_235444_melville.all.mb58.gz 24.33MB Kongsberg multibeam vendor format
0062_20110325_002452_melville.all.mb58.gz 23.92MB Kongsberg multibeam vendor format
0063_20110325_005451_melville.all.mb58.gz 23.91MB Kongsberg multibeam vendor format
0064_20110325_012441_melville.all.mb58.gz 24.14MB Kongsberg multibeam vendor format
0065_20110325_015444_melville.all.mb58.gz 24.09MB Kongsberg multibeam vendor format
0066_20110325_022441_melville.all.mb58.gz 24.08MB Kongsberg multibeam vendor format
0067_20110325_025444_melville.all.mb58.gz 24.28MB Kongsberg multibeam vendor format
0068_20110325_032450_melville.all.mb58.gz 23.90MB Kongsberg multibeam vendor format
0069_20110325_035444_melville.all.mb58.gz 24.31MB Kongsberg multibeam vendor format
0070_20110325_042453_melville.all.mb58.gz 24.18MB Kongsberg multibeam vendor format
0071_20110325_045448_melville.all.mb58.gz 23.93MB Kongsberg multibeam vendor format
0072_20110325_052442_melville.all.mb58.gz 24.44MB Kongsberg multibeam vendor format
0073_20110325_055450_melville.all.mb58.gz 24.53MB Kongsberg multibeam vendor format
0074_20110325_062454_melville.all.mb58.gz 23.66MB Kongsberg multibeam vendor format
0075_20110325_065443_melville.all.mb58.gz 23.88MB Kongsberg multibeam vendor format
0076_20110325_072447_melville.all.mb58.gz 23.78MB Kongsberg multibeam vendor format
0077_20110325_075438_melville.all.mb58.gz 24.35MB Kongsberg multibeam vendor format
0078_20110325_082447_melville.all.mb58.gz 24.07MB Kongsberg multibeam vendor format
0079_20110325_085445_melville.all.mb58.gz 24.19MB Kongsberg multibeam vendor format
0080_20110325_092449_melville.all.mb58.gz 23.78MB Kongsberg multibeam vendor format
0081_20110325_095453_melville.all.mb58.gz 23.78MB Kongsberg multibeam vendor format
0082_20110325_102438_melville.all.mb58.gz 23.76MB Kongsberg multibeam vendor format
0083_20110325_105451_melville.all.mb58.gz 23.81MB Kongsberg multibeam vendor format
0084_20110325_112452_melville.all.mb58.gz 23.53MB Kongsberg multibeam vendor format
0085_20110325_115438_melville.all.mb58.gz 23.69MB Kongsberg multibeam vendor format
0086_20110325_122447_melville.all.mb58.gz 23.66MB Kongsberg multibeam vendor format
0087_20110325_125456_melville.all.mb58.gz 23.45MB Kongsberg multibeam vendor format
0088_20110325_132450_melville.all.mb58.gz 23.55MB Kongsberg multibeam vendor format
0089_20110325_135444_melville.all.mb58.gz 23.56MB Kongsberg multibeam vendor format
0090_20110325_142447_melville.all.mb58.gz 23.71MB Kongsberg multibeam vendor format
0091_20110325_145454_melville.all.mb58.gz 23.55MB Kongsberg multibeam vendor format
0092_20110325_152453_melville.all.mb58.gz 23.48MB Kongsberg multibeam vendor format
0093_20110325_155443_melville.all.mb58.gz 23.66MB Kongsberg multibeam vendor format
0094_20110325_162446_melville.all.mb58.gz 23.82MB Kongsberg multibeam vendor format
0095_20110325_165457_melville.all.mb58.gz 23.38MB Kongsberg multibeam vendor format
0096_20110325_172441_melville.all.mb58.gz 23.74MB Kongsberg multibeam vendor format
0097_20110325_175449_melville.all.mb58.gz 23.28MB Kongsberg multibeam vendor format
0098_20110325_182441_melville.all.mb58.gz 23.52MB Kongsberg multibeam vendor format
0099_20110325_185441_melville.all.mb58.gz 23.46MB Kongsberg multibeam vendor format
0100_20110325_192448_melville.all.mb58.gz 23.49MB Kongsberg multibeam vendor format
0101_20110325_195452_melville.all.mb58.gz 23.32MB Kongsberg multibeam vendor format
0102_20110325_202444_melville.all.mb58.gz 23.49MB Kongsberg multibeam vendor format
0103_20110325_205451_melville.all.mb58.gz 23.40MB Kongsberg multibeam vendor format
0104_20110325_212443_melville.all.mb58.gz 23.57MB Kongsberg multibeam vendor format
0105_20110325_215449_melville.all.mb58.gz 23.67MB Kongsberg multibeam vendor format
0106_20110325_222439_melville.all.mb58.gz 23.60MB Kongsberg multibeam vendor format
0107_20110325_225439_melville.all.mb58.gz 23.58MB Kongsberg multibeam vendor format
0108_20110325_232450_melville.all.mb58.gz 23.47MB Kongsberg multibeam vendor format
0109_20110325_235443_melville.all.mb58.gz 23.47MB Kongsberg multibeam vendor format
0110_20110326_002440_melville.all.mb58.gz 23.51MB Kongsberg multibeam vendor format
0111_20110326_005453_melville.all.mb58.gz 23.22MB Kongsberg multibeam vendor format
0112_20110326_012443_melville.all.mb58.gz 23.46MB Kongsberg multibeam vendor format
0113_20110326_015442_melville.all.mb58.gz 23.62MB Kongsberg multibeam vendor format
0114_20110326_022442_melville.all.mb58.gz 23.64MB Kongsberg multibeam vendor format
0115_20110326_025453_melville.all.mb58.gz 23.60MB Kongsberg multibeam vendor format
0116_20110326_032454_melville.all.mb58.gz 23.46MB Kongsberg multibeam vendor format
0117_20110326_035441_melville.all.mb58.gz 23.72MB Kongsberg multibeam vendor format
0118_20110326_042452_melville.all.mb58.gz 23.53MB Kongsberg multibeam vendor format
0119_20110326_045445_melville.all.mb58.gz 23.43MB Kongsberg multibeam vendor format
0120_20110326_052442_melville.all.mb58.gz 23.98MB Kongsberg multibeam vendor format
0121_20110326_055450_melville.all.mb58.gz 23.64MB Kongsberg multibeam vendor format
0122_20110326_062446_melville.all.mb58.gz 23.89MB Kongsberg multibeam vendor format
0123_20110326_065451_melville.all.mb58.gz 23.65MB Kongsberg multibeam vendor format
0124_20110326_072452_melville.all.mb58.gz 23.51MB Kongsberg multibeam vendor format
0125_20110326_075438_melville.all.mb58.gz 23.54MB Kongsberg multibeam vendor format
0126_20110326_082447_melville.all.mb58.gz 23.72MB Kongsberg multibeam vendor format
0127_20110326_085452_melville.all.mb58.gz 23.83MB Kongsberg multibeam vendor format
0128_20110326_092445_melville.all.mb58.gz 23.79MB Kongsberg multibeam vendor format
0129_20110326_095442_melville.all.mb58.gz 24.36MB Kongsberg multibeam vendor format
0130_20110326_102438_melville.all.mb58.gz 24.04MB Kongsberg multibeam vendor format
0131_20110326_105450_melville.all.mb58.gz 23.92MB Kongsberg multibeam vendor format
0132_20110326_112441_melville.all.mb58.gz 23.90MB Kongsberg multibeam vendor format
0133_20110326_115449_melville.all.mb58.gz 24.00MB Kongsberg multibeam vendor format
0134_20110326_122443_melville.all.mb58.gz 24.07MB Kongsberg multibeam vendor format
0135_20110326_125443_melville.all.mb58.gz 24.66MB Kongsberg multibeam vendor format
0136_20110326_132447_melville.all.mb58.gz 24.36MB Kongsberg multibeam vendor format
0137_20110326_135438_melville.all.mb58.gz 24.62MB Kongsberg multibeam vendor format
0138_20110326_142438_melville.all.mb58.gz 24.51MB Kongsberg multibeam vendor format
0139_20110326_145437_melville.all.mb58.gz 24.56MB Kongsberg multibeam vendor format
0140_20110326_152442_melville.all.mb58.gz 24.68MB Kongsberg multibeam vendor format
0141_20110326_155445_melville.all.mb58.gz 24.62MB Kongsberg multibeam vendor format
0142_20110326_162445_melville.all.mb58.gz 24.08MB Kongsberg multibeam vendor format
0143_20110326_165448_melville.all.mb58.gz 24.47MB Kongsberg multibeam vendor format
0144_20110326_172444_melville.all.mb58.gz 23.82MB Kongsberg multibeam vendor format
0145_20110326_175440_melville.all.mb58.gz 24.28MB Kongsberg multibeam vendor format
0146_20110326_182445_melville.all.mb58.gz 23.77MB Kongsberg multibeam vendor format
0147_20110326_185437_melville.all.mb58.gz 24.23MB Kongsberg multibeam vendor format
0148_20110326_192445_melville.all.mb58.gz 23.59MB Kongsberg multibeam vendor format
0149_20110326_195443_melville.all.mb58.gz 23.64MB Kongsberg multibeam vendor format
0150_20110326_202438_melville.all.mb58.gz 23.82MB Kongsberg multibeam vendor format
0151_20110326_205447_melville.all.mb58.gz 23.84MB Kongsberg multibeam vendor format
0152_20110326_212451_melville.all.mb58.gz 23.66MB Kongsberg multibeam vendor format
0153_20110326_215442_melville.all.mb58.gz 23.75MB Kongsberg multibeam vendor format
0154_20110326_222440_melville.all.mb58.gz 23.82MB Kongsberg multibeam vendor format
0155_20110326_225453_melville.all.mb58.gz 23.35MB Kongsberg multibeam vendor format
0156_20110326_232440_melville.all.mb58.gz 23.75MB Kongsberg multibeam vendor format
0157_20110326_235454_melville.all.mb58.gz 23.92MB Kongsberg multibeam vendor format
0158_20110327_002444_melville.all.mb58.gz 23.67MB Kongsberg multibeam vendor format
0159_20110327_005456_melville.all.mb58.gz 23.26MB Kongsberg multibeam vendor format
0160_20110327_012444_melville.all.mb58.gz 23.72MB Kongsberg multibeam vendor format
0161_20110327_015447_melville.all.mb58.gz 23.89MB Kongsberg multibeam vendor format
0162_20110327_022437_melville.all.mb58.gz 23.90MB Kongsberg multibeam vendor format
0163_20110327_025444_melville.all.mb58.gz 23.95MB Kongsberg multibeam vendor format
0164_20110327_032453_melville.all.mb58.gz 24.04MB Kongsberg multibeam vendor format
0165_20110327_035444_melville.all.mb58.gz 25.41MB Kongsberg multibeam vendor format
0166_20110327_042448_melville.all.mb58.gz 25.36MB Kongsberg multibeam vendor format
0167_20110327_045444_melville.all.mb58.gz 25.66MB Kongsberg multibeam vendor format
0168_20110327_052448_melville.all.mb58.gz 25.77MB Kongsberg multibeam vendor format
0169_20110327_055442_melville.all.mb58.gz 26.27MB Kongsberg multibeam vendor format
0170_20110327_062440_melville.all.mb58.gz 25.40MB Kongsberg multibeam vendor format
0171_20110327_065447_melville.all.mb58.gz 24.22MB Kongsberg multibeam vendor format
0172_20110327_072450_melville.all.mb58.gz 24.04MB Kongsberg multibeam vendor format
0173_20110327_075439_melville.all.mb58.gz 24.15MB Kongsberg multibeam vendor format
0174_20110327_082439_melville.all.mb58.gz 23.85MB Kongsberg multibeam vendor format
0175_20110327_085445_melville.all.mb58.gz 23.65MB Kongsberg multibeam vendor format
0176_20110327_092441_melville.all.mb58.gz 23.49MB Kongsberg multibeam vendor format
0177_20110327_095447_melville.all.mb58.gz 23.25MB Kongsberg multibeam vendor format
0178_20110327_102451_melville.all.mb58.gz 23.31MB Kongsberg multibeam vendor format
0179_20110327_105441_melville.all.mb58.gz 24.03MB Kongsberg multibeam vendor format
0180_20110327_112450_melville.all.mb58.gz 23.34MB Kongsberg multibeam vendor format
0181_20110327_115448_melville.all.mb58.gz 23.65MB Kongsberg multibeam vendor format
0182_20110327_122439_melville.all.mb58.gz 24.01MB Kongsberg multibeam vendor format
0183_20110327_125436_melville.all.mb58.gz 6.28MB Kongsberg multibeam vendor format
0184_20110327_140651_melville.all.mb58.gz 2.29MB Kongsberg multibeam vendor format
0185_20110328_135051_melville.all.mb58.gz 26.06MB Kongsberg multibeam vendor format
0186_20110328_142057_melville.all.mb58.gz 24.94MB Kongsberg multibeam vendor format
0187_20110328_145059_melville.all.mb58.gz 24.51MB Kongsberg multibeam vendor format
0188_20110328_152059_melville.all.mb58.gz 24.73MB Kongsberg multibeam vendor format
0189_20110328_155056_melville.all.mb58.gz 24.75MB Kongsberg multibeam vendor format
0190_20110328_162057_melville.all.mb58.gz 24.13MB Kongsberg multibeam vendor format
0191_20110328_165054_melville.all.mb58.gz 24.18MB Kongsberg multibeam vendor format
0192_20110328_172057_melville.all.mb58.gz 24.08MB Kongsberg multibeam vendor format
0193_20110328_175100_melville.all.mb58.gz 24.13MB Kongsberg multibeam vendor format
0194_20110328_182102_melville.all.mb58.gz 23.62MB Kongsberg multibeam vendor format
0195_20110328_185051_melville.all.mb58.gz 23.81MB Kongsberg multibeam vendor format
0196_20110328_192050_melville.all.mb58.gz 23.72MB Kongsberg multibeam vendor format
0197_20110328_195051_melville.all.mb58.gz 23.75MB Kongsberg multibeam vendor format
0198_20110328_202058_melville.all.mb58.gz 23.51MB Kongsberg multibeam vendor format
0199_20110328_205051_melville.all.mb58.gz 23.88MB Kongsberg multibeam vendor format
0200_20110328_212105_melville.all.mb58.gz 23.66MB Kongsberg multibeam vendor format
0201_20110328_215106_melville.all.mb58.gz 23.63MB Kongsberg multibeam vendor format
0202_20110328_222101_melville.all.mb58.gz 23.49MB Kongsberg multibeam vendor format
0203_20110328_225050_melville.all.mb58.gz 23.64MB Kongsberg multibeam vendor format
0204_20110328_232054_melville.all.mb58.gz 23.70MB Kongsberg multibeam vendor format
0205_20110328_235051_melville.all.mb58.gz 23.88MB Kongsberg multibeam vendor format
0206_20110329_002105_melville.all.mb58.gz 23.45MB Kongsberg multibeam vendor format
0207_20110329_005100_melville.all.mb58.gz 23.59MB Kongsberg multibeam vendor format
0208_20110329_012058_melville.all.mb58.gz 23.68MB Kongsberg multibeam vendor format
0209_20110329_015055_melville.all.mb58.gz 23.69MB Kongsberg multibeam vendor format
0210_20110329_022051_melville.all.mb58.gz 23.85MB Kongsberg multibeam vendor format
0211_20110329_025050_melville.all.mb58.gz 23.71MB Kongsberg multibeam vendor format
0212_20110329_032056_melville.all.mb58.gz 23.54MB Kongsberg multibeam vendor format
0213_20110329_035059_melville.all.mb58.gz 23.58MB Kongsberg multibeam vendor format
0214_20110329_042054_melville.all.mb58.gz 23.64MB Kongsberg multibeam vendor format
0215_20110329_045052_melville.all.mb58.gz 23.83MB Kongsberg multibeam vendor format
0216_20110329_052056_melville.all.mb58.gz 23.76MB Kongsberg multibeam vendor format
0217_20110329_055100_melville.all.mb58.gz 23.67MB Kongsberg multibeam vendor format
0218_20110329_062105_melville.all.mb58.gz 23.60MB Kongsberg multibeam vendor format
0219_20110329_065104_melville.all.mb58.gz 23.44MB Kongsberg multibeam vendor format
0220_20110329_072051_melville.all.mb58.gz 23.61MB Kongsberg multibeam vendor format
0221_20110329_075103_melville.all.mb58.gz 23.61MB Kongsberg multibeam vendor format
0222_20110329_082059_melville.all.mb58.gz 23.54MB Kongsberg multibeam vendor format
0223_20110329_085053_melville.all.mb58.gz 23.54MB Kongsberg multibeam vendor format
0224_20110329_092056_melville.all.mb58.gz 23.65MB Kongsberg multibeam vendor format
0225_20110329_095054_melville.all.mb58.gz 23.92MB Kongsberg multibeam vendor format
0226_20110329_102105_melville.all.mb58.gz 23.45MB Kongsberg multibeam vendor format
0227_20110329_105051_melville.all.mb58.gz 23.72MB Kongsberg multibeam vendor format
0228_20110329_112058_melville.all.mb58.gz 23.71MB Kongsberg multibeam vendor format
0229_20110329_115104_melville.all.mb58.gz 22.95MB Kongsberg multibeam vendor format
0230_20110329_122052_melville.all.mb58.gz 23.00MB Kongsberg multibeam vendor format
0231_20110329_125053_melville.all.mb58.gz 22.96MB Kongsberg multibeam vendor format
0232_20110329_132103_melville.all.mb58.gz 22.73MB Kongsberg multibeam vendor format
0233_20110329_135109_melville.all.mb58.gz 22.82MB Kongsberg multibeam vendor format
0234_20110329_142053_melville.all.mb58.gz 23.00MB Kongsberg multibeam vendor format
0235_20110329_145100_melville.all.mb58.gz 22.99MB Kongsberg multibeam vendor format
0236_20110329_152050_melville.all.mb58.gz 23.20MB Kongsberg multibeam vendor format
0237_20110329_155059_melville.all.mb58.gz 23.41MB Kongsberg multibeam vendor format
0238_20110329_162101_melville.all.mb58.gz 23.22MB Kongsberg multibeam vendor format
0239_20110329_165056_melville.all.mb58.gz 23.38MB Kongsberg multibeam vendor format
0240_20110329_172057_melville.all.mb58.gz 23.12MB Kongsberg multibeam vendor format
0241_20110329_175055_melville.all.mb58.gz 23.17MB Kongsberg multibeam vendor format
0242_20110329_182048_melville.all.mb58.gz 23.30MB Kongsberg multibeam vendor format
0243_20110329_185049_melville.all.mb58.gz 23.21MB Kongsberg multibeam vendor format
0244_20110329_192052_melville.all.mb58.gz 23.27MB Kongsberg multibeam vendor format
0245_20110329_195058_melville.all.mb58.gz 23.30MB Kongsberg multibeam vendor format
0246_20110329_202057_melville.all.mb58.gz 23.15MB Kongsberg multibeam vendor format
0247_20110329_205049_melville.all.mb58.gz 23.23MB Kongsberg multibeam vendor format
0248_20110329_212047_melville.all.mb58.gz 23.46MB Kongsberg multibeam vendor format
0249_20110329_215057_melville.all.mb58.gz 23.28MB Kongsberg multibeam vendor format
0250_20110329_222050_melville.all.mb58.gz 23.51MB Kongsberg multibeam vendor format
0251_20110329_225103_melville.all.mb58.gz 23.15MB Kongsberg multibeam vendor format
0252_20110329_232053_melville.all.mb58.gz 23.37MB Kongsberg multibeam vendor format
0253_20110329_235100_melville.all.mb58.gz 23.34MB Kongsberg multibeam vendor format
0254_20110330_002056_melville.all.mb58.gz 23.44MB Kongsberg multibeam vendor format
0255_20110330_005103_melville.all.mb58.gz 23.32MB Kongsberg multibeam vendor format
0256_20110330_012054_melville.all.mb58.gz 23.45MB Kongsberg multibeam vendor format
0257_20110330_015055_melville.all.mb58.gz 23.19MB Kongsberg multibeam vendor format
0258_20110330_022056_melville.all.mb58.gz 23.27MB Kongsberg multibeam vendor format
0259_20110330_025053_melville.all.mb58.gz 23.38MB Kongsberg multibeam vendor format
0260_20110330_032057_melville.all.mb58.gz 23.24MB Kongsberg multibeam vendor format
0261_20110330_035052_melville.all.mb58.gz 23.41MB Kongsberg multibeam vendor format
0262_20110330_042057_melville.all.mb58.gz 23.39MB Kongsberg multibeam vendor format
0263_20110330_045100_melville.all.mb58.gz 23.43MB Kongsberg multibeam vendor format
0264_20110330_052103_melville.all.mb58.gz 23.29MB Kongsberg multibeam vendor format
0265_20110330_055056_melville.all.mb58.gz 23.35MB Kongsberg multibeam vendor format
0266_20110330_062053_melville.all.mb58.gz 23.43MB Kongsberg multibeam vendor format
0267_20110330_065053_melville.all.mb58.gz 23.57MB Kongsberg multibeam vendor format
0268_20110330_072047_melville.all.mb58.gz 23.87MB Kongsberg multibeam vendor format
0269_20110330_075104_melville.all.mb58.gz 23.31MB Kongsberg multibeam vendor format
0270_20110330_082105_melville.all.mb58.gz 23.41MB Kongsberg multibeam vendor format
0271_20110330_085049_melville.all.mb58.gz 23.27MB Kongsberg multibeam vendor format
0272_20110330_092051_melville.all.mb58.gz 23.35MB Kongsberg multibeam vendor format
0273_20110330_095047_melville.all.mb58.gz 23.50MB Kongsberg multibeam vendor format
0274_20110330_102049_melville.all.mb58.gz 23.26MB Kongsberg multibeam vendor format
0275_20110330_105057_melville.all.mb58.gz 23.33MB Kongsberg multibeam vendor format
0276_20110330_112053_melville.all.mb58.gz 23.35MB Kongsberg multibeam vendor format
0277_20110330_115101_melville.all.mb58.gz 23.31MB Kongsberg multibeam vendor format
0278_20110330_122057_melville.all.mb58.gz 23.26MB Kongsberg multibeam vendor format
0279_20110330_125056_melville.all.mb58.gz 23.36MB Kongsberg multibeam vendor format
0280_20110330_132058_melville.all.mb58.gz 23.35MB Kongsberg multibeam vendor format
0281_20110330_135101_melville.all.mb58.gz 23.29MB Kongsberg multibeam vendor format
0282_20110330_142051_melville.all.mb58.gz 23.38MB Kongsberg multibeam vendor format
0283_20110330_145058_melville.all.mb58.gz 23.29MB Kongsberg multibeam vendor format
0284_20110330_152051_melville.all.mb58.gz 23.22MB Kongsberg multibeam vendor format
0285_20110330_155053_melville.all.mb58.gz 23.04MB Kongsberg multibeam vendor format
0286_20110330_162053_melville.all.mb58.gz 22.92MB Kongsberg multibeam vendor format
0287_20110330_165053_melville.all.mb58.gz 22.93MB Kongsberg multibeam vendor format
0288_20110330_172055_melville.all.mb58.gz 22.93MB Kongsberg multibeam vendor format
0289_20110330_175053_melville.all.mb58.gz 13.13MB Kongsberg multibeam vendor format
0290_20110331_193712_melville.all.mb58.gz 23.01MB Kongsberg multibeam vendor format
0291_20110331_200714_melville.all.mb58.gz 23.52MB Kongsberg multibeam vendor format
0292_20110331_203718_melville.all.mb58.gz 23.17MB Kongsberg multibeam vendor format
0293_20110331_210727_melville.all.mb58.gz 23.07MB Kongsberg multibeam vendor format
0294_20110331_213731_melville.all.mb58.gz 20.60MB Kongsberg multibeam vendor format
0295_20110331_221208_melville.all.mb58.gz 22.93MB Kongsberg multibeam vendor format
0296_20110331_224215_melville.all.mb58.gz 22.92MB Kongsberg multibeam vendor format
0297_20110331_231217_melville.all.mb58.gz 23.15MB Kongsberg multibeam vendor format
0298_20110331_234217_melville.all.mb58.gz 22.83MB Kongsberg multibeam vendor format
0299_20110401_001214_melville.all.mb58.gz 22.93MB Kongsberg multibeam vendor format
0300_20110401_004218_melville.all.mb58.gz 22.67MB Kongsberg multibeam vendor format
0301_20110401_011209_melville.all.mb58.gz 23.29MB Kongsberg multibeam vendor format
0302_20110401_014219_melville.all.mb58.gz 23.40MB Kongsberg multibeam vendor format
0303_20110401_021220_melville.all.mb58.gz 23.40MB Kongsberg multibeam vendor format
0304_20110401_024213_melville.all.mb58.gz 23.60MB Kongsberg multibeam vendor format
0305_20110401_031223_melville.all.mb58.gz 23.45MB Kongsberg multibeam vendor format
0306_20110401_034225_melville.all.mb58.gz 23.38MB Kongsberg multibeam vendor format
0307_20110401_041218_melville.all.mb58.gz 23.37MB Kongsberg multibeam vendor format
0308_20110401_044209_melville.all.mb58.gz 23.54MB Kongsberg multibeam vendor format
0309_20110401_051211_melville.all.mb58.gz 23.71MB Kongsberg multibeam vendor format
0310_20110401_054221_melville.all.mb58.gz 23.56MB Kongsberg multibeam vendor format
0311_20110401_061218_melville.all.mb58.gz 23.55MB Kongsberg multibeam vendor format
0312_20110401_064211_melville.all.mb58.gz 23.77MB Kongsberg multibeam vendor format
0313_20110401_071223_melville.all.mb58.gz 23.47MB Kongsberg multibeam vendor format
0314_20110401_074217_melville.all.mb58.gz 23.45MB Kongsberg multibeam vendor format
0315_20110401_081223_melville.all.mb58.gz 23.32MB Kongsberg multibeam vendor format
0316_20110401_084209_melville.all.mb58.gz 23.56MB Kongsberg multibeam vendor format
0317_20110401_091211_melville.all.mb58.gz 23.69MB Kongsberg multibeam vendor format
0318_20110401_094223_melville.all.mb58.gz 23.54MB Kongsberg multibeam vendor format
0319_20110401_101217_melville.all.mb58.gz 23.50MB Kongsberg multibeam vendor format
0320_20110401_104210_melville.all.mb58.gz 23.80MB Kongsberg multibeam vendor format
0321_20110401_111224_melville.all.mb58.gz 23.41MB Kongsberg multibeam vendor format
0322_20110401_114219_melville.all.mb58.gz 23.57MB Kongsberg multibeam vendor format
0323_20110401_121219_melville.all.mb58.gz 23.50MB Kongsberg multibeam vendor format
0324_20110401_124215_melville.all.mb58.gz 23.50MB Kongsberg multibeam vendor format
0325_20110401_131209_melville.all.mb58.gz 23.64MB Kongsberg multibeam vendor format
0326_20110401_134220_melville.all.mb58.gz 23.47MB Kongsberg multibeam vendor format
0327_20110401_141218_melville.all.mb58.gz 23.50MB Kongsberg multibeam vendor format
0328_20110401_144221_melville.all.mb58.gz 23.44MB Kongsberg multibeam vendor format
0329_20110401_151221_melville.all.mb58.gz 23.41MB Kongsberg multibeam vendor format
0330_20110401_154216_melville.all.mb58.gz 23.43MB Kongsberg multibeam vendor format
0331_20110401_161211_melville.all.mb58.gz 23.56MB Kongsberg multibeam vendor format
0332_20110401_164212_melville.all.mb58.gz 23.65MB Kongsberg multibeam vendor format
0333_20110401_171220_melville.all.mb58.gz 23.44MB Kongsberg multibeam vendor format
0334_20110401_174226_melville.all.mb58.gz 23.53MB Kongsberg multibeam vendor format
0335_20110401_181224_melville.all.mb58.gz 23.52MB Kongsberg multibeam vendor format
0336_20110401_184222_melville.all.mb58.gz 23.58MB Kongsberg multibeam vendor format
0337_20110401_191225_melville.all.mb58.gz 23.43MB Kongsberg multibeam vendor format
0338_20110401_194219_melville.all.mb58.gz 23.70MB Kongsberg multibeam vendor format
0339_20110401_201225_melville.all.mb58.gz 23.45MB Kongsberg multibeam vendor format
0340_20110401_204214_melville.all.mb58.gz 23.59MB Kongsberg multibeam vendor format
0341_20110401_211220_melville.all.mb58.gz 23.44MB Kongsberg multibeam vendor format
0342_20110401_214207_melville.all.mb58.gz 23.87MB Kongsberg multibeam vendor format
0343_20110401_221219_melville.all.mb58.gz 23.70MB Kongsberg multibeam vendor format
0344_20110401_224222_melville.all.mb58.gz 23.41MB Kongsberg multibeam vendor format
0345_20110401_231208_melville.all.mb58.gz 23.78MB Kongsberg multibeam vendor format
0346_20110401_234221_melville.all.mb58.gz 23.59MB Kongsberg multibeam vendor format
0347_20110402_001218_melville.all.mb58.gz 23.61MB Kongsberg multibeam vendor format
0348_20110402_004226_melville.all.mb58.gz 23.33MB Kongsberg multibeam vendor format
0349_20110402_011210_melville.all.mb58.gz 23.74MB Kongsberg multibeam vendor format
0350_20110402_014216_melville.all.mb58.gz 23.58MB Kongsberg multibeam vendor format
0351_20110402_021209_melville.all.mb58.gz 23.81MB Kongsberg multibeam vendor format
0352_20110402_024219_melville.all.mb58.gz 23.62MB Kongsberg multibeam vendor format
0353_20110402_031222_melville.all.mb58.gz 23.66MB Kongsberg multibeam vendor format
0354_20110402_034224_melville.all.mb58.gz 23.41MB Kongsberg multibeam vendor format
0355_20110402_041211_melville.all.mb58.gz 23.62MB Kongsberg multibeam vendor format
0356_20110402_044214_melville.all.mb58.gz 23.65MB Kongsberg multibeam vendor format
0357_20110402_051220_melville.all.mb58.gz 23.29MB Kongsberg multibeam vendor format
0358_20110402_054209_melville.all.mb58.gz 23.87MB Kongsberg multibeam vendor format
0359_20110402_061224_melville.all.mb58.gz 23.49MB Kongsberg multibeam vendor format
0360_20110402_064207_melville.all.mb58.gz 23.77MB Kongsberg multibeam vendor format
0361_20110402_071216_melville.all.mb58.gz 23.72MB Kongsberg multibeam vendor format
0362_20110402_074221_melville.all.mb58.gz 23.75MB Kongsberg multibeam vendor format
0363_20110402_081219_melville.all.mb58.gz 23.55MB Kongsberg multibeam vendor format
0364_20110402_084207_melville.all.mb58.gz 23.75MB Kongsberg multibeam vendor format
0365_20110402_091209_melville.all.mb58.gz 23.83MB Kongsberg multibeam vendor format
0366_20110402_094218_melville.all.mb58.gz 23.66MB Kongsberg multibeam vendor format
0367_20110402_101213_melville.all.mb58.gz 23.78MB Kongsberg multibeam vendor format
0368_20110402_104217_melville.all.mb58.gz 23.83MB Kongsberg multibeam vendor format
0369_20110402_111222_melville.all.mb58.gz 23.38MB Kongsberg multibeam vendor format
0370_20110402_114210_melville.all.mb58.gz 23.80MB Kongsberg multibeam vendor format
0371_20110402_121217_melville.all.mb58.gz 23.73MB Kongsberg multibeam vendor format
0372_20110402_124212_melville.all.mb58.gz 23.67MB Kongsberg multibeam vendor format
0373_20110402_131214_melville.all.mb58.gz 23.88MB Kongsberg multibeam vendor format
0374_20110402_134221_melville.all.mb58.gz 23.77MB Kongsberg multibeam vendor format
0375_20110402_141218_melville.all.mb58.gz 23.28MB Kongsberg multibeam vendor format
0376_20110402_144206_melville.all.mb58.gz 23.04MB Kongsberg multibeam vendor format
0377_20110402_151214_melville.all.mb58.gz 22.73MB Kongsberg multibeam vendor format
0378_20110402_154207_melville.all.mb58.gz 23.10MB Kongsberg multibeam vendor format
0379_20110402_161208_melville.all.mb58.gz 23.16MB Kongsberg multibeam vendor format
0380_20110402_164216_melville.all.mb58.gz 23.09MB Kongsberg multibeam vendor format
0381_20110402_171215_melville.all.mb58.gz 23.16MB Kongsberg multibeam vendor format
0382_20110402_174218_melville.all.mb58.gz 23.28MB Kongsberg multibeam vendor format
0383_20110402_181215_melville.all.mb58.gz 22.92MB Kongsberg multibeam vendor format
0384_20110402_184227_melville.all.mb58.gz 22.51MB Kongsberg multibeam vendor format
0385_20110402_191207_melville.all.mb58.gz 23.41MB Kongsberg multibeam vendor format
0386_20110402_194214_melville.all.mb58.gz 23.19MB Kongsberg multibeam vendor format
0387_20110402_201212_melville.all.mb58.gz 23.26MB Kongsberg multibeam vendor format
0388_20110402_204211_melville.all.mb58.gz 23.13MB Kongsberg multibeam vendor format
0389_20110402_211211_melville.all.mb58.gz 23.17MB Kongsberg multibeam vendor format
0390_20110402_214219_melville.all.mb58.gz 22.84MB Kongsberg multibeam vendor format
0391_20110402_221207_melville.all.mb58.gz 23.12MB Kongsberg multibeam vendor format
0392_20110402_224209_melville.all.mb58.gz 23.08MB Kongsberg multibeam vendor format
0393_20110402_231210_melville.all.mb58.gz 23.28MB Kongsberg multibeam vendor format
0394_20110402_234224_melville.all.mb58.gz 22.80MB Kongsberg multibeam vendor format
0395_20110403_001206_melville.all.mb58.gz 22.96MB Kongsberg multibeam vendor format
0396_20110403_004208_melville.all.mb58.gz 22.92MB Kongsberg multibeam vendor format
0397_20110403_011213_melville.all.mb58.gz 22.92MB Kongsberg multibeam vendor format
0398_20110403_014212_melville.all.mb58.gz 22.89MB Kongsberg multibeam vendor format
0399_20110403_021219_melville.all.mb58.gz 22.98MB Kongsberg multibeam vendor format
0400_20110403_024217_melville.all.mb58.gz 23.17MB Kongsberg multibeam vendor format
0401_20110403_031224_melville.all.mb58.gz 22.94MB Kongsberg multibeam vendor format
0402_20110403_034211_melville.all.mb58.gz 23.03MB Kongsberg multibeam vendor format
0403_20110403_041220_melville.all.mb58.gz 23.06MB Kongsberg multibeam vendor format
0404_20110403_044226_melville.all.mb58.gz 23.33MB Kongsberg multibeam vendor format
0405_20110403_051213_melville.all.mb58.gz 23.73MB Kongsberg multibeam vendor format
0406_20110403_054209_melville.all.mb58.gz 24.11MB Kongsberg multibeam vendor format
0407_20110403_061223_melville.all.mb58.gz 23.77MB Kongsberg multibeam vendor format
0408_20110403_064212_melville.all.mb58.gz 23.84MB Kongsberg multibeam vendor format
0409_20110403_071208_melville.all.mb58.gz 23.99MB Kongsberg multibeam vendor format
0410_20110403_074222_melville.all.mb58.gz 23.74MB Kongsberg multibeam vendor format
0411_20110403_081216_melville.all.mb58.gz 23.98MB Kongsberg multibeam vendor format
0412_20110403_084217_melville.all.mb58.gz 24.07MB Kongsberg multibeam vendor format
0413_20110403_091209_melville.all.mb58.gz 23.67MB Kongsberg multibeam vendor format
0414_20110403_094209_melville.all.mb58.gz 22.96MB Kongsberg multibeam vendor format
0415_20110403_101206_melville.all.mb58.gz 23.01MB Kongsberg multibeam vendor format
0416_20110403_104210_melville.all.mb58.gz 23.05MB Kongsberg multibeam vendor format
0417_20110403_111225_melville.all.mb58.gz 22.76MB Kongsberg multibeam vendor format
0418_20110403_114213_melville.all.mb58.gz 22.93MB Kongsberg multibeam vendor format
0419_20110403_121207_melville.all.mb58.gz 23.31MB Kongsberg multibeam vendor format
0420_20110403_124226_melville.all.mb58.gz 22.61MB Kongsberg multibeam vendor format
0421_20110403_131207_melville.all.mb58.gz 23.19MB Kongsberg multibeam vendor format
0422_20110403_134220_melville.all.mb58.gz 22.81MB Kongsberg multibeam vendor format
0423_20110403_141207_melville.all.mb58.gz 22.96MB Kongsberg multibeam vendor format
0424_20110403_144213_melville.all.mb58.gz 22.99MB Kongsberg multibeam vendor format
0425_20110403_151213_melville.all.mb58.gz 23.25MB Kongsberg multibeam vendor format
0426_20110403_154222_melville.all.mb58.gz 22.79MB Kongsberg multibeam vendor format
0427_20110403_161209_melville.all.mb58.gz 13.97MB Kongsberg multibeam vendor format
0428_20110403_163126_melville.all.mb58.gz 23.17MB Kongsberg multibeam vendor format
0429_20110403_170122_melville.all.mb58.gz 23.16MB Kongsberg multibeam vendor format
0430_20110403_173112_melville.all.mb58.gz 23.31MB Kongsberg multibeam vendor format
0431_20110403_180124_melville.all.mb58.gz 23.26MB Kongsberg multibeam vendor format
0432_20110403_183126_melville.all.mb58.gz 23.22MB Kongsberg multibeam vendor format
0433_20110403_190120_melville.all.mb58.gz 23.17MB Kongsberg multibeam vendor format
0434_20110403_193114_melville.all.mb58.gz 23.25MB Kongsberg multibeam vendor format
0435_20110403_200129_melville.all.mb58.gz 23.47MB Kongsberg multibeam vendor format
0436_20110403_203126_melville.all.mb58.gz 23.75MB Kongsberg multibeam vendor format
0437_20110403_210127_melville.all.mb58.gz 23.67MB Kongsberg multibeam vendor format
0438_20110403_213127_melville.all.mb58.gz 23.57MB Kongsberg multibeam vendor format
0439_20110403_220118_melville.all.mb58.gz 23.69MB Kongsberg multibeam vendor format
0440_20110403_223113_melville.all.mb58.gz 23.91MB Kongsberg multibeam vendor format
0441_20110403_230127_melville.all.mb58.gz 23.65MB Kongsberg multibeam vendor format
0442_20110403_233121_melville.all.mb58.gz 23.64MB Kongsberg multibeam vendor format
0443_20110404_000116_melville.all.mb58.gz 23.63MB Kongsberg multibeam vendor format
0444_20110404_003110_melville.all.mb58.gz 23.98MB Kongsberg multibeam vendor format
0445_20110404_010119_melville.all.mb58.gz 23.98MB Kongsberg multibeam vendor format
0446_20110404_013119_melville.all.mb58.gz 23.75MB Kongsberg multibeam vendor format
0447_20110404_020117_melville.all.mb58.gz 23.96MB Kongsberg multibeam vendor format
0448_20110404_023124_melville.all.mb58.gz 24.00MB Kongsberg multibeam vendor format
0449_20110404_030129_melville.all.mb58.gz 23.83MB Kongsberg multibeam vendor format
0450_20110404_033111_melville.all.mb58.gz 24.12MB Kongsberg multibeam vendor format
0451_20110404_040125_melville.all.mb58.gz 23.94MB Kongsberg multibeam vendor format
0452_20110404_043119_melville.all.mb58.gz 23.82MB Kongsberg multibeam vendor format
0453_20110404_050114_melville.all.mb58.gz 24.07MB Kongsberg multibeam vendor format
0454_20110404_053125_melville.all.mb58.gz 23.78MB Kongsberg multibeam vendor format
0455_20110404_060120_melville.all.mb58.gz 23.74MB Kongsberg multibeam vendor format
0456_20110404_063114_melville.all.mb58.gz 23.96MB Kongsberg multibeam vendor format
0457_20110404_070120_melville.all.mb58.gz 23.85MB Kongsberg multibeam vendor format
0458_20110404_073121_melville.all.mb58.gz 23.83MB Kongsberg multibeam vendor format
0459_20110404_080118_melville.all.mb58.gz 23.86MB Kongsberg multibeam vendor format
0460_20110404_083123_melville.all.mb58.gz 23.81MB Kongsberg multibeam vendor format
0461_20110404_090127_melville.all.mb58.gz 23.65MB Kongsberg multibeam vendor format
0462_20110404_093111_melville.all.mb58.gz 23.89MB Kongsberg multibeam vendor format
0463_20110404_100119_melville.all.mb58.gz 23.80MB Kongsberg multibeam vendor format
0464_20110404_103118_melville.all.mb58.gz 24.10MB Kongsberg multibeam vendor format
0465_20110404_110129_melville.all.mb58.gz 23.64MB Kongsberg multibeam vendor format
0466_20110404_113120_melville.all.mb58.gz 23.81MB Kongsberg multibeam vendor format
0467_20110404_120117_melville.all.mb58.gz 23.75MB Kongsberg multibeam vendor format
0468_20110404_123111_melville.all.mb58.gz 23.91MB Kongsberg multibeam vendor format
0469_20110404_130111_melville.all.mb58.gz 24.48MB Kongsberg multibeam vendor format
0470_20110404_133125_melville.all.mb58.gz 24.35MB Kongsberg multibeam vendor format
0471_20110404_140123_melville.all.mb58.gz 24.47MB Kongsberg multibeam vendor format
0472_20110404_143113_melville.all.mb58.gz 24.51MB Kongsberg multibeam vendor format
0473_20110404_150117_melville.all.mb58.gz 24.22MB Kongsberg multibeam vendor format
0474_20110404_153114_melville.all.mb58.gz 24.50MB Kongsberg multibeam vendor format
0475_20110404_160119_melville.all.mb58.gz 24.30MB Kongsberg multibeam vendor format
0476_20110404_163116_melville.all.mb58.gz 24.52MB Kongsberg multibeam vendor format
0477_20110404_170120_melville.all.mb58.gz 24.45MB Kongsberg multibeam vendor format
0478_20110404_173116_melville.all.mb58.gz 24.31MB Kongsberg multibeam vendor format
0479_20110404_180116_melville.all.mb58.gz 23.71MB Kongsberg multibeam vendor format
0480_20110404_183122_melville.all.mb58.gz 23.84MB Kongsberg multibeam vendor format
0481_20110404_190119_melville.all.mb58.gz 23.99MB Kongsberg multibeam vendor format
0482_20110404_193112_melville.all.mb58.gz 24.58MB Kongsberg multibeam vendor format
0483_20110404_200121_melville.all.mb58.gz 24.41MB Kongsberg multibeam vendor format
0484_20110404_203112_melville.all.mb58.gz 24.76MB Kongsberg multibeam vendor format
0485_20110404_210123_melville.all.mb58.gz 24.47MB Kongsberg multibeam vendor format
0486_20110404_213120_melville.all.mb58.gz 24.41MB Kongsberg multibeam vendor format
0487_20110404_220121_melville.all.mb58.gz 24.30MB Kongsberg multibeam vendor format
0488_20110404_223116_melville.all.mb58.gz 24.46MB Kongsberg multibeam vendor format
0489_20110404_230118_melville.all.mb58.gz 24.33MB Kongsberg multibeam vendor format
0490_20110404_233121_melville.all.mb58.gz 24.34MB Kongsberg multibeam vendor format
0491_20110405_000118_melville.all.mb58.gz 24.43MB Kongsberg multibeam vendor format
0492_20110405_003112_melville.all.mb58.gz 24.51MB Kongsberg multibeam vendor format
0493_20110405_010118_melville.all.mb58.gz 24.46MB Kongsberg multibeam vendor format
0494_20110405_013119_melville.all.mb58.gz 24.37MB Kongsberg multibeam vendor format
0495_20110405_020114_melville.all.mb58.gz 24.48MB Kongsberg multibeam vendor format
0496_20110405_023121_melville.all.mb58.gz 24.07MB Kongsberg multibeam vendor format
0497_20110405_030110_melville.all.mb58.gz 24.36MB Kongsberg multibeam vendor format
0498_20110405_033116_melville.all.mb58.gz 24.45MB Kongsberg multibeam vendor format
0499_20110405_040122_melville.all.mb58.gz 24.16MB Kongsberg multibeam vendor format
0500_20110405_043109_melville.all.mb58.gz 24.48MB Kongsberg multibeam vendor format
0501_20110405_050117_melville.all.mb58.gz 24.26MB Kongsberg multibeam vendor format
0502_20110405_053112_melville.all.mb58.gz 24.50MB Kongsberg multibeam vendor format
0503_20110405_060124_melville.all.mb58.gz 24.34MB Kongsberg multibeam vendor format
0504_20110405_063123_melville.all.mb58.gz 24.19MB Kongsberg multibeam vendor format
0505_20110405_070113_melville.all.mb58.gz 24.22MB Kongsberg multibeam vendor format
0506_20110405_073115_melville.all.mb58.gz 24.15MB Kongsberg multibeam vendor format
0507_20110405_080116_melville.all.mb58.gz 24.33MB Kongsberg multibeam vendor format
0508_20110405_083115_melville.all.mb58.gz 24.30MB Kongsberg multibeam vendor format
0509_20110405_090113_melville.all.mb58.gz 24.21MB Kongsberg multibeam vendor format
0510_20110405_093116_melville.all.mb58.gz 24.33MB Kongsberg multibeam vendor format
0511_20110405_100111_melville.all.mb58.gz 24.24MB Kongsberg multibeam vendor format
0512_20110405_103109_melville.all.mb58.gz 24.18MB Kongsberg multibeam vendor format
0513_20110405_110110_melville.all.mb58.gz 24.28MB Kongsberg multibeam vendor format
0514_20110405_113124_melville.all.mb58.gz 23.92MB Kongsberg multibeam vendor format
0515_20110405_120110_melville.all.mb58.gz 24.28MB Kongsberg multibeam vendor format
0516_20110405_123114_melville.all.mb58.gz 24.28MB Kongsberg multibeam vendor format
0517_20110405_130118_melville.all.mb58.gz 23.97MB Kongsberg multibeam vendor format
0518_20110405_133116_melville.all.mb58.gz 24.06MB Kongsberg multibeam vendor format
0519_20110405_140116_melville.all.mb58.gz 24.23MB Kongsberg multibeam vendor format
0520_20110405_143122_melville.all.mb58.gz 23.84MB Kongsberg multibeam vendor format
0521_20110405_150113_melville.all.mb58.gz 23.86MB Kongsberg multibeam vendor format
0522_20110405_153108_melville.all.mb58.gz 23.91MB Kongsberg multibeam vendor format
0523_20110405_160111_melville.all.mb58.gz 23.99MB Kongsberg multibeam vendor format
0524_20110405_163111_melville.all.mb58.gz 23.93MB Kongsberg multibeam vendor format
0525_20110405_170117_melville.all.mb58.gz 23.80MB Kongsberg multibeam vendor format
0526_20110405_173110_melville.all.mb58.gz 23.88MB Kongsberg multibeam vendor format
0527_20110405_180112_melville.all.mb58.gz 23.92MB Kongsberg multibeam vendor format
0528_20110405_183111_melville.all.mb58.gz 23.99MB Kongsberg multibeam vendor format
0529_20110405_190121_melville.all.mb58.gz 23.68MB Kongsberg multibeam vendor format
0530_20110405_193123_melville.all.mb58.gz 23.80MB Kongsberg multibeam vendor format
0531_20110405_200125_melville.all.mb58.gz 23.87MB Kongsberg multibeam vendor format
0532_20110405_203125_melville.all.mb58.gz 23.66MB Kongsberg multibeam vendor format
0533_20110405_210112_melville.all.mb58.gz 23.78MB Kongsberg multibeam vendor format
0534_20110405_213114_melville.all.mb58.gz 23.76MB Kongsberg multibeam vendor format
0535_20110405_220123_melville.all.mb58.gz 23.71MB Kongsberg multibeam vendor format
0536_20110405_223126_melville.all.mb58.gz 23.63MB Kongsberg multibeam vendor format
0537_20110405_230111_melville.all.mb58.gz 23.69MB Kongsberg multibeam vendor format
0538_20110405_233125_melville.all.mb58.gz 23.24MB Kongsberg multibeam vendor format
0539_20110406_000124_melville.all.mb58.gz 23.05MB Kongsberg multibeam vendor format
0540_20110406_003109_melville.all.mb58.gz 23.51MB Kongsberg multibeam vendor format
0541_20110406_010128_melville.all.mb58.gz 22.99MB Kongsberg multibeam vendor format
0542_20110406_013114_melville.all.mb58.gz 23.03MB Kongsberg multibeam vendor format
0543_20110406_020111_melville.all.mb58.gz 23.13MB Kongsberg multibeam vendor format
0544_20110406_023115_melville.all.mb58.gz 23.09MB Kongsberg multibeam vendor format
0545_20110406_030122_melville.all.mb58.gz 23.01MB Kongsberg multibeam vendor format
0546_20110406_033116_melville.all.mb58.gz 22.88MB Kongsberg multibeam vendor format
0547_20110406_040111_melville.all.mb58.gz 23.04MB Kongsberg multibeam vendor format
0548_20110406_043125_melville.all.mb58.gz 22.84MB Kongsberg multibeam vendor format
0549_20110406_050112_melville.all.mb58.gz 23.34MB Kongsberg multibeam vendor format
0550_20110406_053119_melville.all.mb58.gz 23.10MB Kongsberg multibeam vendor format
0551_20110406_060112_melville.all.mb58.gz 23.27MB Kongsberg multibeam vendor format
0552_20110406_063123_melville.all.mb58.gz 22.86MB Kongsberg multibeam vendor format
0553_20110406_070116_melville.all.mb58.gz 22.90MB Kongsberg multibeam vendor format
0554_20110406_073115_melville.all.mb58.gz 23.00MB Kongsberg multibeam vendor format
0555_20110406_080118_melville.all.mb58.gz 22.82MB Kongsberg multibeam vendor format
0556_20110406_083112_melville.all.mb58.gz 23.19MB Kongsberg multibeam vendor format
0557_20110406_090128_melville.all.mb58.gz 22.85MB Kongsberg multibeam vendor format
0558_20110406_093121_melville.all.mb58.gz 22.78MB Kongsberg multibeam vendor format
0559_20110406_100108_melville.all.mb58.gz 23.09MB Kongsberg multibeam vendor format
0560_20110406_103123_melville.all.mb58.gz 22.79MB Kongsberg multibeam vendor format
0561_20110406_110115_melville.all.mb58.gz 23.04MB Kongsberg multibeam vendor format
0562_20110406_113125_melville.all.mb58.gz 22.93MB Kongsberg multibeam vendor format
0563_20110406_120122_melville.all.mb58.gz 22.86MB Kongsberg multibeam vendor format
0564_20110406_123118_melville.all.mb58.gz 23.52MB Kongsberg multibeam vendor format
0565_20110406_130119_melville.all.mb58.gz 23.79MB Kongsberg multibeam vendor format
0566_20110406_133115_melville.all.mb58.gz 4.23MB Kongsberg multibeam vendor format
0567_20110407_224305_melville.all.mb58.gz 12.39MB Kongsberg multibeam vendor format
0568_20110407_230600_melville.all.mb58.gz 23.75MB Kongsberg multibeam vendor format
0569_20110407_233609_melville.all.mb58.gz 23.40MB Kongsberg multibeam vendor format
0570_20110408_000609_melville.all.mb58.gz 24.05MB Kongsberg multibeam vendor format
0571_20110408_003608_melville.all.mb58.gz 23.67MB Kongsberg multibeam vendor format
0572_20110408_010604_melville.all.mb58.gz 23.35MB Kongsberg multibeam vendor format
0573_20110408_013604_melville.all.mb58.gz 23.59MB Kongsberg multibeam vendor format
0574_20110408_020611_melville.all.mb58.gz 23.30MB Kongsberg multibeam vendor format
0575_20110408_023605_melville.all.mb58.gz 23.51MB Kongsberg multibeam vendor format
0576_20110408_030608_melville.all.mb58.gz 23.61MB Kongsberg multibeam vendor format
0577_20110408_033618_melville.all.mb58.gz 23.43MB Kongsberg multibeam vendor format
0578_20110408_040612_melville.all.mb58.gz 23.21MB Kongsberg multibeam vendor format
0579_20110408_043604_melville.all.mb58.gz 23.62MB Kongsberg multibeam vendor format
0580_20110408_050610_melville.all.mb58.gz 23.40MB Kongsberg multibeam vendor format
0581_20110408_053600_melville.all.mb58.gz 23.62MB Kongsberg multibeam vendor format
0582_20110408_060616_melville.all.mb58.gz 23.17MB Kongsberg multibeam vendor format
0583_20110408_063604_melville.all.mb58.gz 23.52MB Kongsberg multibeam vendor format
0584_20110408_070608_melville.all.mb58.gz 23.45MB Kongsberg multibeam vendor format
0585_20110408_073606_melville.all.mb58.gz 23.43MB Kongsberg multibeam vendor format
0586_20110408_080614_melville.all.mb58.gz 23.17MB Kongsberg multibeam vendor format
0587_20110408_083611_melville.all.mb58.gz 23.57MB Kongsberg multibeam vendor format
0588_20110408_090616_melville.all.mb58.gz 23.48MB Kongsberg multibeam vendor format
0589_20110408_093607_melville.all.mb58.gz 23.50MB Kongsberg multibeam vendor format
0590_20110408_100605_melville.all.mb58.gz 23.61MB Kongsberg multibeam vendor format
0591_20110408_103610_melville.all.mb58.gz 23.73MB Kongsberg multibeam vendor format
0592_20110408_110618_melville.all.mb58.gz 23.54MB Kongsberg multibeam vendor format
0593_20110408_113617_melville.all.mb58.gz 23.14MB Kongsberg multibeam vendor format
0594_20110408_120607_melville.all.mb58.gz 23.11MB Kongsberg multibeam vendor format
0595_20110408_123607_melville.all.mb58.gz 23.19MB Kongsberg multibeam vendor format
0596_20110408_130601_melville.all.mb58.gz 23.22MB Kongsberg multibeam vendor format
0597_20110408_133610_melville.all.mb58.gz 23.27MB Kongsberg multibeam vendor format
0598_20110408_140609_melville.all.mb58.gz 23.19MB Kongsberg multibeam vendor format
0599_20110408_143608_melville.all.mb58.gz 23.70MB Kongsberg multibeam vendor format
0600_20110408_150614_melville.all.mb58.gz 23.80MB Kongsberg multibeam vendor format
0601_20110408_153608_melville.all.mb58.gz 23.60MB Kongsberg multibeam vendor format
0602_20110408_160606_melville.all.mb58.gz 23.79MB Kongsberg multibeam vendor format
0603_20110408_163601_melville.all.mb58.gz 24.07MB Kongsberg multibeam vendor format
0604_20110408_170608_melville.all.mb58.gz 23.85MB Kongsberg multibeam vendor format
0605_20110408_173605_melville.all.mb58.gz 24.00MB Kongsberg multibeam vendor format
0606_20110408_180608_melville.all.mb58.gz 23.89MB Kongsberg multibeam vendor format
0607_20110408_183607_melville.all.mb58.gz 23.48MB Kongsberg multibeam vendor format
0608_20110408_190602_melville.all.mb58.gz 24.15MB Kongsberg multibeam vendor format
0609_20110408_193610_melville.all.mb58.gz 23.63MB Kongsberg multibeam vendor format
0610_20110408_200605_melville.all.mb58.gz 24.06MB Kongsberg multibeam vendor format
0611_20110408_203608_melville.all.mb58.gz 24.08MB Kongsberg multibeam vendor format
0612_20110408_210605_melville.all.mb58.gz 23.97MB Kongsberg multibeam vendor format
0613_20110408_213605_melville.all.mb58.gz 24.26MB Kongsberg multibeam vendor format
0614_20110408_220610_melville.all.mb58.gz 23.70MB Kongsberg multibeam vendor format
0615_20110408_223559_melville.all.mb58.gz 24.02MB Kongsberg multibeam vendor format
0616_20110408_230607_melville.all.mb58.gz 23.93MB Kongsberg multibeam vendor format
0617_20110408_233612_melville.all.mb58.gz 23.96MB Kongsberg multibeam vendor format
0618_20110409_000607_melville.all.mb58.gz 24.02MB Kongsberg multibeam vendor format
0619_20110409_003611_melville.all.mb58.gz 23.79MB Kongsberg multibeam vendor format
0620_20110409_010602_melville.all.mb58.gz 23.75MB Kongsberg multibeam vendor format
0621_20110409_013614_melville.all.mb58.gz 23.68MB Kongsberg multibeam vendor format
0622_20110409_020606_melville.all.mb58.gz 23.88MB Kongsberg multibeam vendor format
0623_20110409_023601_melville.all.mb58.gz 24.15MB Kongsberg multibeam vendor format
0624_20110409_030606_melville.all.mb58.gz 23.99MB Kongsberg multibeam vendor format
0625_20110409_033601_melville.all.mb58.gz 24.25MB Kongsberg multibeam vendor format
0626_20110409_040611_melville.all.mb58.gz 24.12MB Kongsberg multibeam vendor format
0627_20110409_043612_melville.all.mb58.gz 23.92MB Kongsberg multibeam vendor format
0628_20110409_050611_melville.all.mb58.gz 23.87MB Kongsberg multibeam vendor format
0629_20110409_053559_melville.all.mb58.gz 24.50MB Kongsberg multibeam vendor format
0630_20110409_060610_melville.all.mb58.gz 24.60MB Kongsberg multibeam vendor format
0631_20110409_063601_melville.all.mb58.gz 24.57MB Kongsberg multibeam vendor format
0632_20110409_070605_melville.all.mb58.gz 24.45MB Kongsberg multibeam vendor format
0633_20110409_073609_melville.all.mb58.gz 24.27MB Kongsberg multibeam vendor format
0634_20110409_080616_melville.all.mb58.gz 23.65MB Kongsberg multibeam vendor format
0635_20110409_083605_melville.all.mb58.gz 23.66MB Kongsberg multibeam vendor format
0636_20110409_090616_melville.all.mb58.gz 23.04MB Kongsberg multibeam vendor format
0637_20110409_093603_melville.all.mb58.gz 23.28MB Kongsberg multibeam vendor format
0638_20110409_100617_melville.all.mb58.gz 23.49MB Kongsberg multibeam vendor format
0639_20110409_103613_melville.all.mb58.gz 23.78MB Kongsberg multibeam vendor format
0640_20110409_110611_melville.all.mb58.gz 24.14MB Kongsberg multibeam vendor format
0641_20110409_113604_melville.all.mb58.gz 24.57MB Kongsberg multibeam vendor format
0642_20110409_120612_melville.all.mb58.gz 24.17MB Kongsberg multibeam vendor format
0643_20110409_123605_melville.all.mb58.gz 24.62MB Kongsberg multibeam vendor format
0644_20110409_130609_melville.all.mb58.gz 24.57MB Kongsberg multibeam vendor format
0645_20110409_133611_melville.all.mb58.gz 24.57MB Kongsberg multibeam vendor format
0646_20110409_140607_melville.all.mb58.gz 24.55MB Kongsberg multibeam vendor format
0647_20110409_143559_melville.all.mb58.gz 24.82MB Kongsberg multibeam vendor format
0648_20110409_150609_melville.all.mb58.gz 24.63MB Kongsberg multibeam vendor format
0649_20110409_153603_melville.all.mb58.gz 24.59MB Kongsberg multibeam vendor format
0650_20110409_160600_melville.all.mb58.gz 24.34MB Kongsberg multibeam vendor format
0651_20110409_163603_melville.all.mb58.gz 24.66MB Kongsberg multibeam vendor format
0652_20110409_170612_melville.all.mb58.gz 23.87MB Kongsberg multibeam vendor format
0653_20110409_173611_melville.all.mb58.gz 24.45MB Kongsberg multibeam vendor format
0654_20110409_180600_melville.all.mb58.gz 24.93MB Kongsberg multibeam vendor format
0655_20110409_183601_melville.all.mb58.gz 24.18MB Kongsberg multibeam vendor format
0656_20110409_190612_melville.all.mb58.gz 23.93MB Kongsberg multibeam vendor format
0657_20110409_193605_melville.all.mb58.gz 23.97MB Kongsberg multibeam vendor format
0658_20110409_200559_melville.all.mb58.gz 24.10MB Kongsberg multibeam vendor format
0659_20110409_203612_melville.all.mb58.gz 23.94MB Kongsberg multibeam vendor format
0660_20110409_210604_melville.all.mb58.gz 23.93MB Kongsberg multibeam vendor format
0661_20110409_213603_melville.all.mb58.gz 23.95MB Kongsberg multibeam vendor format
0662_20110409_220607_melville.all.mb58.gz 24.14MB Kongsberg multibeam vendor format
0663_20110409_223602_melville.all.mb58.gz 24.49MB Kongsberg multibeam vendor format
0664_20110409_230604_melville.all.mb58.gz 24.74MB Kongsberg multibeam vendor format
0665_20110409_233600_melville.all.mb58.gz 24.30MB Kongsberg multibeam vendor format
0666_20110410_000603_melville.all.mb58.gz 24.67MB Kongsberg multibeam vendor format
0667_20110410_003559_melville.all.mb58.gz 26.36MB Kongsberg multibeam vendor format
0668_20110410_010604_melville.all.mb58.gz 24.78MB Kongsberg multibeam vendor format
0669_20110410_013606_melville.all.mb58.gz 25.29MB Kongsberg multibeam vendor format
0670_20110410_020601_melville.all.mb58.gz 23.37MB Kongsberg multibeam vendor format
0671_20110410_023602_melville.all.mb58.gz 25.09MB Kongsberg multibeam vendor format
0672_20110410_030559_melville.all.mb58.gz 24.67MB Kongsberg multibeam vendor format
0673_20110410_033558_melville.all.mb58.gz 24.54MB Kongsberg multibeam vendor format
0674_20110410_040600_melville.all.mb58.gz 23.94MB Kongsberg multibeam vendor format
0675_20110410_043613_melville.all.mb58.gz 24.05MB Kongsberg multibeam vendor format
0676_20110410_050559_melville.all.mb58.gz 24.24MB Kongsberg multibeam vendor format
0677_20110410_053603_melville.all.mb58.gz 24.84MB Kongsberg multibeam vendor format
0678_20110410_060609_melville.all.mb58.gz 24.26MB Kongsberg multibeam vendor format
0679_20110410_063602_melville.all.mb58.gz 24.59MB Kongsberg multibeam vendor format
0680_20110410_070607_melville.all.mb58.gz 24.73MB Kongsberg multibeam vendor format
0681_20110410_073610_melville.all.mb58.gz 24.46MB Kongsberg multibeam vendor format
0682_20110410_080559_melville.all.mb58.gz 24.88MB Kongsberg multibeam vendor format
0683_20110410_083605_melville.all.mb58.gz 24.25MB Kongsberg multibeam vendor format
0684_20110410_090559_melville.all.mb58.gz 24.23MB Kongsberg multibeam vendor format
0685_20110410_093610_melville.all.mb58.gz 24.17MB Kongsberg multibeam vendor format
0686_20110410_100607_melville.all.mb58.gz 24.40MB Kongsberg multibeam vendor format
0687_20110410_103608_melville.all.mb58.gz 24.03MB Kongsberg multibeam vendor format
0688_20110410_110600_melville.all.mb58.gz 24.68MB Kongsberg multibeam vendor format
0689_20110410_113609_melville.all.mb58.gz 24.04MB Kongsberg multibeam vendor format
0690_20110410_120605_melville.all.mb58.gz 24.24MB Kongsberg multibeam vendor format
0691_20110410_123609_melville.all.mb58.gz 24.54MB Kongsberg multibeam vendor format
0692_20110410_130604_melville.all.mb58.gz 24.15MB Kongsberg multibeam vendor format
0693_20110410_133608_melville.all.mb58.gz 24.27MB Kongsberg multibeam vendor format
0694_20110410_140602_melville.all.mb58.gz 24.03MB Kongsberg multibeam vendor format
0695_20110410_143559_melville.all.mb58.gz 23.86MB Kongsberg multibeam vendor format
0696_20110410_150603_melville.all.mb58.gz 23.89MB Kongsberg multibeam vendor format
0697_20110410_153608_melville.all.mb58.gz 23.79MB Kongsberg multibeam vendor format
0698_20110410_160602_melville.all.mb58.gz 23.90MB Kongsberg multibeam vendor format
0699_20110410_163600_melville.all.mb58.gz 23.83MB Kongsberg multibeam vendor format
0700_20110410_170614_melville.all.mb58.gz 24.01MB Kongsberg multibeam vendor format
0701_20110410_173608_melville.all.mb58.gz 23.93MB Kongsberg multibeam vendor format
0702_20110410_180606_melville.all.mb58.gz 23.93MB Kongsberg multibeam vendor format
0703_20110410_183606_melville.all.mb58.gz 24.04MB Kongsberg multibeam vendor format
0704_20110410_190558_melville.all.mb58.gz 24.20MB Kongsberg multibeam vendor format
0705_20110410_193602_melville.all.mb58.gz 24.04MB Kongsberg multibeam vendor format
0706_20110410_200615_melville.all.mb58.gz 23.70MB Kongsberg multibeam vendor format
0707_20110410_203558_melville.all.mb58.gz 24.33MB Kongsberg multibeam vendor format
0708_20110410_210610_melville.all.mb58.gz 4.65MB Kongsberg multibeam vendor format
0709_20110410_215641_melville.all.mb58.gz 23.75MB Kongsberg multibeam vendor format
0710_20110410_222635_melville.all.mb58.gz 24.05MB Kongsberg multibeam vendor format
0711_20110410_225641_melville.all.mb58.gz 23.64MB Kongsberg multibeam vendor format
0712_20110410_232629_melville.all.mb58.gz 23.87MB Kongsberg multibeam vendor format
0713_20110410_235638_melville.all.mb58.gz 24.00MB Kongsberg multibeam vendor format
0714_20110411_002638_melville.all.mb58.gz 5.02MB Kongsberg multibeam vendor format
0715_20110411_004513_melville.all.mb58.gz 5.24MB Kongsberg multibeam vendor format
0716_20110411_005350_melville.all.mb58.gz 23.37MB Kongsberg multibeam vendor format
0717_20110411_012357_melville.all.mb58.gz 15.20MB Kongsberg multibeam vendor format
0718_20110411_014515_melville.all.mb58.gz 23.23MB Kongsberg multibeam vendor format
0719_20110411_021517_melville.all.mb58.gz 23.19MB Kongsberg multibeam vendor format
0720_20110411_024529_melville.all.mb58.gz 22.70MB Kongsberg multibeam vendor format
0721_20110411_031522_melville.all.mb58.gz 23.38MB Kongsberg multibeam vendor format
0722_20110411_034534_melville.all.mb58.gz 23.52MB Kongsberg multibeam vendor format
0723_20110411_041533_melville.all.mb58.gz 23.46MB Kongsberg multibeam vendor format
0724_20110411_044523_melville.all.mb58.gz 23.29MB Kongsberg multibeam vendor format
0725_20110411_051517_melville.all.mb58.gz 23.02MB Kongsberg multibeam vendor format
0726_20110411_054517_melville.all.mb58.gz 23.04MB Kongsberg multibeam vendor format
0727_20110411_061521_melville.all.mb58.gz 23.03MB Kongsberg multibeam vendor format
0728_20110411_064527_melville.all.mb58.gz 22.80MB Kongsberg multibeam vendor format
0729_20110411_071525_melville.all.mb58.gz 23.17MB Kongsberg multibeam vendor format
0730_20110411_074533_melville.all.mb58.gz 22.95MB Kongsberg multibeam vendor format
0731_20110411_081537_melville.all.mb58.gz 23.05MB Kongsberg multibeam vendor format
0732_20110411_084520_melville.all.mb58.gz 23.28MB Kongsberg multibeam vendor format
0733_20110411_091520_melville.all.mb58.gz 23.30MB Kongsberg multibeam vendor format
0734_20110411_094521_melville.all.mb58.gz 23.34MB Kongsberg multibeam vendor format
0735_20110411_101517_melville.all.mb58.gz 23.39MB Kongsberg multibeam vendor format
0736_20110411_104524_melville.all.mb58.gz 23.42MB Kongsberg multibeam vendor format
0737_20110411_111532_melville.all.mb58.gz 22.98MB Kongsberg multibeam vendor format
0738_20110411_114517_melville.all.mb58.gz 23.29MB Kongsberg multibeam vendor format
0739_20110411_121519_melville.all.mb58.gz 23.34MB Kongsberg multibeam vendor format
0740_20110411_124524_melville.all.mb58.gz 23.26MB Kongsberg multibeam vendor format
0741_20110411_131523_melville.all.mb58.gz 23.18MB Kongsberg multibeam vendor format
0742_20110411_134519_melville.all.mb58.gz 23.39MB Kongsberg multibeam vendor format
0743_20110411_141524_melville.all.mb58.gz 7.10MB Kongsberg multibeam vendor format
0744_20110411_163910_melville.all.mb58.gz 23.51MB Kongsberg multibeam vendor format
0745_20110411_170905_melville.all.mb58.gz 5.09MB Kongsberg multibeam vendor format
0746_20110412_193302_melville.all.mb58.gz 23.52MB Kongsberg multibeam vendor format
0747_20110412_200251_melville.all.mb58.gz 23.35MB Kongsberg multibeam vendor format
0748_20110412_203245_melville.all.mb58.gz 23.36MB Kongsberg multibeam vendor format
0749_20110412_210249_melville.all.mb58.gz 4.97MB Kongsberg multibeam vendor format
0750_20110413_221007_melville.all.mb58.gz 171.8KB Kongsberg multibeam vendor format
0751_20110413_221125_melville.all.mb58.gz 23.05MB Kongsberg multibeam vendor format
0752_20110413_224127_melville.all.mb58.gz 23.86MB Kongsberg multibeam vendor format
0753_20110413_231140_melville.all.mb58.gz 23.38MB Kongsberg multibeam vendor format
0754_20110413_234143_melville.all.mb58.gz 23.28MB Kongsberg multibeam vendor format
0755_20110414_001131_melville.all.mb58.gz 23.82MB Kongsberg multibeam vendor format
0756_20110414_004141_melville.all.mb58.gz 23.49MB Kongsberg multibeam vendor format
0757_20110414_011132_melville.all.mb58.gz 23.47MB Kongsberg multibeam vendor format
0758_20110414_014141_melville.all.mb58.gz 23.80MB Kongsberg multibeam vendor format
0759_20110414_021127_melville.all.mb58.gz 23.55MB Kongsberg multibeam vendor format
0760_20110414_024134_melville.all.mb58.gz 23.38MB Kongsberg multibeam vendor format
0761_20110414_031129_melville.all.mb58.gz 23.47MB Kongsberg multibeam vendor format
0762_20110414_034125_melville.all.mb58.gz 23.90MB Kongsberg multibeam vendor format
0763_20110414_041133_melville.all.mb58.gz 23.78MB Kongsberg multibeam vendor format
0764_20110414_044131_melville.all.mb58.gz 23.67MB Kongsberg multibeam vendor format
0765_20110414_051131_melville.all.mb58.gz 23.70MB Kongsberg multibeam vendor format
0766_20110414_054126_melville.all.mb58.gz 23.92MB Kongsberg multibeam vendor format
0767_20110414_061135_melville.all.mb58.gz 23.69MB Kongsberg multibeam vendor format
0768_20110414_064125_melville.all.mb58.gz 24.05MB Kongsberg multibeam vendor format
0769_20110414_071142_melville.all.mb58.gz 23.69MB Kongsberg multibeam vendor format
0770_20110414_074135_melville.all.mb58.gz 23.77MB Kongsberg multibeam vendor format
0771_20110414_081130_melville.all.mb58.gz 23.64MB Kongsberg multibeam vendor format
0772_20110414_084134_melville.all.mb58.gz 23.27MB Kongsberg multibeam vendor format
0773_20110414_091125_melville.all.mb58.gz 23.87MB Kongsberg multibeam vendor format
0774_20110414_094131_melville.all.mb58.gz 23.86MB Kongsberg multibeam vendor format
0775_20110414_101125_melville.all.mb58.gz 23.86MB Kongsberg multibeam vendor format
0776_20110414_104134_melville.all.mb58.gz 24.12MB Kongsberg multibeam vendor format
0777_20110414_111140_melville.all.mb58.gz 23.90MB Kongsberg multibeam vendor format
0778_20110414_114141_melville.all.mb58.gz 23.70MB Kongsberg multibeam vendor format
0779_20110414_121140_melville.all.mb58.gz 23.89MB Kongsberg multibeam vendor format
0780_20110414_124135_melville.all.mb58.gz 23.54MB Kongsberg multibeam vendor format
0781_20110414_131126_melville.all.mb58.gz 23.94MB Kongsberg multibeam vendor format
0782_20110414_134129_melville.all.mb58.gz 23.61MB Kongsberg multibeam vendor format
0783_20110414_141135_melville.all.mb58.gz 23.89MB Kongsberg multibeam vendor format
0784_20110414_144126_melville.all.mb58.gz 23.88MB Kongsberg multibeam vendor format
0785_20110414_151137_melville.all.mb58.gz 23.57MB Kongsberg multibeam vendor format
0786_20110414_154124_melville.all.mb58.gz 23.77MB Kongsberg multibeam vendor format
0787_20110414_161125_melville.all.mb58.gz 23.69MB Kongsberg multibeam vendor format
0788_20110414_164131_melville.all.mb58.gz 22.84MB Kongsberg multibeam vendor format
0789_20110414_171134_melville.all.mb58.gz 23.48MB Kongsberg multibeam vendor format
0790_20110414_174136_melville.all.mb58.gz 23.85MB Kongsberg multibeam vendor format
0791_20110414_181126_melville.all.mb58.gz 24.14MB Kongsberg multibeam vendor format
0792_20110414_184139_melville.all.mb58.gz 23.84MB Kongsberg multibeam vendor format
0793_20110414_191140_melville.all.mb58.gz 23.10MB Kongsberg multibeam vendor format
0794_20110414_194136_melville.all.mb58.gz 24.18MB Kongsberg multibeam vendor format
0795_20110414_201135_melville.all.mb58.gz 23.98MB Kongsberg multibeam vendor format
0796_20110414_204142_melville.all.mb58.gz 23.71MB Kongsberg multibeam vendor format
0797_20110414_211134_melville.all.mb58.gz 23.66MB Kongsberg multibeam vendor format
0798_20110414_214142_melville.all.mb58.gz 23.69MB Kongsberg multibeam vendor format
0799_20110414_221124_melville.all.mb58.gz 23.96MB Kongsberg multibeam vendor format
0800_20110414_224137_melville.all.mb58.gz 23.56MB Kongsberg multibeam vendor format
0801_20110414_231125_melville.all.mb58.gz 23.68MB Kongsberg multibeam vendor format
0802_20110414_234127_melville.all.mb58.gz 23.85MB Kongsberg multibeam vendor format
0803_20110415_001127_melville.all.mb58.gz 24.27MB Kongsberg multibeam vendor format
0804_20110415_004130_melville.all.mb58.gz 23.83MB Kongsberg multibeam vendor format
0805_20110415_011135_melville.all.mb58.gz 23.71MB Kongsberg multibeam vendor format
0806_20110415_014127_melville.all.mb58.gz 23.88MB Kongsberg multibeam vendor format
0807_20110415_021132_melville.all.mb58.gz 23.96MB Kongsberg multibeam vendor format
0808_20110415_024124_melville.all.mb58.gz 23.63MB Kongsberg multibeam vendor format
0809_20110415_031124_melville.all.mb58.gz 24.04MB Kongsberg multibeam vendor format
0810_20110415_034137_melville.all.mb58.gz 23.90MB Kongsberg multibeam vendor format
0811_20110415_041127_melville.all.mb58.gz 24.23MB Kongsberg multibeam vendor format
0812_20110415_044133_melville.all.mb58.gz 23.63MB Kongsberg multibeam vendor format
0813_20110415_051137_melville.all.mb58.gz 23.61MB Kongsberg multibeam vendor format
0814_20110415_054140_melville.all.mb58.gz 24.13MB Kongsberg multibeam vendor format
0815_20110415_061124_melville.all.mb58.gz 24.03MB Kongsberg multibeam vendor format
0816_20110415_064128_melville.all.mb58.gz 24.01MB Kongsberg multibeam vendor format
0817_20110415_071129_melville.all.mb58.gz 24.32MB Kongsberg multibeam vendor format
0818_20110415_074140_melville.all.mb58.gz 23.62MB Kongsberg multibeam vendor format
0819_20110415_081127_melville.all.mb58.gz 23.74MB Kongsberg multibeam vendor format
0820_20110415_084136_melville.all.mb58.gz 23.70MB Kongsberg multibeam vendor format
0821_20110415_091126_melville.all.mb58.gz 24.00MB Kongsberg multibeam vendor format
0822_20110415_094139_melville.all.mb58.gz 23.59MB Kongsberg multibeam vendor format
0823_20110415_101129_melville.all.mb58.gz 23.48MB Kongsberg multibeam vendor format
0824_20110415_104125_melville.all.mb58.gz 23.52MB Kongsberg multibeam vendor format
0825_20110415_111131_melville.all.mb58.gz 23.38MB Kongsberg multibeam vendor format
0826_20110415_114141_melville.all.mb58.gz 23.45MB Kongsberg multibeam vendor format
0827_20110415_121138_melville.all.mb58.gz 23.60MB Kongsberg multibeam vendor format
0828_20110415_124131_melville.all.mb58.gz 23.82MB Kongsberg multibeam vendor format
0829_20110415_131137_melville.all.mb58.gz 23.71MB Kongsberg multibeam vendor format
0830_20110415_134130_melville.all.mb58.gz 23.73MB Kongsberg multibeam vendor format
0831_20110415_141134_melville.all.mb58.gz 23.69MB Kongsberg multibeam vendor format
0832_20110415_144132_melville.all.mb58.gz 23.96MB Kongsberg multibeam vendor format
0833_20110415_151135_melville.all.mb58.gz 24.10MB Kongsberg multibeam vendor format
0834_20110415_154127_melville.all.mb58.gz 24.20MB Kongsberg multibeam vendor format
0835_20110415_161124_melville.all.mb58.gz 24.69MB Kongsberg multibeam vendor format
0836_20110415_164135_melville.all.mb58.gz 24.08MB Kongsberg multibeam vendor format
0837_20110415_171134_melville.all.mb58.gz 23.80MB Kongsberg multibeam vendor format
0838_20110415_174136_melville.all.mb58.gz 23.81MB Kongsberg multibeam vendor format
0839_20110415_181125_melville.all.mb58.gz 24.14MB Kongsberg multibeam vendor format
0840_20110415_184138_melville.all.mb58.gz 24.01MB Kongsberg multibeam vendor format
0841_20110415_191129_melville.all.mb58.gz 24.16MB Kongsberg multibeam vendor format
0842_20110415_194132_melville.all.mb58.gz 23.54MB Kongsberg multibeam vendor format
0843_20110415_201123_melville.all.mb58.gz 23.90MB Kongsberg multibeam vendor format
0844_20110415_204126_melville.all.mb58.gz 23.92MB Kongsberg multibeam vendor format
0845_20110415_211141_melville.all.mb58.gz 23.64MB Kongsberg multibeam vendor format
0846_20110415_214134_melville.all.mb58.gz 23.89MB Kongsberg multibeam vendor format
0847_20110415_221142_melville.all.mb58.gz 23.88MB Kongsberg multibeam vendor format
0848_20110415_224129_melville.all.mb58.gz 24.41MB Kongsberg multibeam vendor format
0849_20110415_231134_melville.all.mb58.gz 23.80MB Kongsberg multibeam vendor format
0850_20110415_234139_melville.all.mb58.gz 23.58MB Kongsberg multibeam vendor format
0851_20110416_001129_melville.all.mb58.gz 23.95MB Kongsberg multibeam vendor format
0852_20110416_004123_melville.all.mb58.gz 24.36MB Kongsberg multibeam vendor format
0853_20110416_011130_melville.all.mb58.gz 24.19MB Kongsberg multibeam vendor format
0854_20110416_014135_melville.all.mb58.gz 24.47MB Kongsberg multibeam vendor format
0855_20110416_021133_melville.all.mb58.gz 24.22MB Kongsberg multibeam vendor format
0856_20110416_024132_melville.all.mb58.gz 24.23MB Kongsberg multibeam vendor format
0857_20110416_031124_melville.all.mb58.gz 24.61MB Kongsberg multibeam vendor format
0858_20110416_034127_melville.all.mb58.gz 24.19MB Kongsberg multibeam vendor format
0859_20110416_041127_melville.all.mb58.gz 24.37MB Kongsberg multibeam vendor format
0860_20110416_044127_melville.all.mb58.gz 24.26MB Kongsberg multibeam vendor format
0861_20110416_051137_melville.all.mb58.gz 23.60MB Kongsberg multibeam vendor format
0862_20110416_054130_melville.all.mb58.gz 23.41MB Kongsberg multibeam vendor format
0863_20110416_061136_melville.all.mb58.gz 23.70MB Kongsberg multibeam vendor format
0864_20110416_064126_melville.all.mb58.gz 23.69MB Kongsberg multibeam vendor format
0865_20110416_071123_melville.all.mb58.gz 23.67MB Kongsberg multibeam vendor format
0866_20110416_074132_melville.all.mb58.gz 23.41MB Kongsberg multibeam vendor format
0867_20110416_081129_melville.all.mb58.gz 23.46MB Kongsberg multibeam vendor format
0868_20110416_084135_melville.all.mb58.gz 23.66MB Kongsberg multibeam vendor format
0869_20110416_091129_melville.all.mb58.gz 23.80MB Kongsberg multibeam vendor format
0870_20110416_094134_melville.all.mb58.gz 21.99MB Kongsberg multibeam vendor format
0871_20110416_163841_melville.all.mb58.gz 24.48MB Kongsberg multibeam vendor format
0872_20110416_170840_melville.all.mb58.gz 24.23MB Kongsberg multibeam vendor format
0873_20110416_173851_melville.all.mb58.gz 24.03MB Kongsberg multibeam vendor format
0874_20110416_180844_melville.all.mb58.gz 24.60MB Kongsberg multibeam vendor format
0875_20110416_183844_melville.all.mb58.gz 24.52MB Kongsberg multibeam vendor format
0876_20110416_190840_melville.all.mb58.gz 24.67MB Kongsberg multibeam vendor format
0877_20110416_193840_melville.all.mb58.gz 24.17MB Kongsberg multibeam vendor format
0878_20110416_200841_melville.all.mb58.gz 24.53MB Kongsberg multibeam vendor format
0879_20110416_203842_melville.all.mb58.gz 24.68MB Kongsberg multibeam vendor format
0880_20110416_210855_melville.all.mb58.gz 24.54MB Kongsberg multibeam vendor format
0881_20110416_213851_melville.all.mb58.gz 23.63MB Kongsberg multibeam vendor format
0882_20110416_220840_melville.all.mb58.gz 24.42MB Kongsberg multibeam vendor format
0883_20110416_223839_melville.all.mb58.gz 24.48MB Kongsberg multibeam vendor format
0884_20110416_230855_melville.all.mb58.gz 23.93MB Kongsberg multibeam vendor format
0885_20110416_233841_melville.all.mb58.gz 24.47MB Kongsberg multibeam vendor format
0886_20110417_000853_melville.all.mb58.gz 24.14MB Kongsberg multibeam vendor format
0887_20110417_003848_melville.all.mb58.gz 24.01MB Kongsberg multibeam vendor format
0888_20110417_010848_melville.all.mb58.gz 24.18MB Kongsberg multibeam vendor format
0889_20110417_013843_melville.all.mb58.gz 24.40MB Kongsberg multibeam vendor format
0890_20110417_020854_melville.all.mb58.gz 24.21MB Kongsberg multibeam vendor format
0891_20110417_023840_melville.all.mb58.gz 24.48MB Kongsberg multibeam vendor format
0892_20110417_030844_melville.all.mb58.gz 24.52MB Kongsberg multibeam vendor format
0893_20110417_033845_melville.all.mb58.gz 24.24MB Kongsberg multibeam vendor format
0894_20110417_040851_melville.all.mb58.gz 24.19MB Kongsberg multibeam vendor format
0895_20110417_043849_melville.all.mb58.gz 24.30MB Kongsberg multibeam vendor format
0896_20110417_050843_melville.all.mb58.gz 24.18MB Kongsberg multibeam vendor format
0897_20110417_053848_melville.all.mb58.gz 24.51MB Kongsberg multibeam vendor format
0898_20110417_060844_melville.all.mb58.gz 24.42MB Kongsberg multibeam vendor format
0899_20110417_063850_melville.all.mb58.gz 24.84MB Kongsberg multibeam vendor format
0900_20110417_070844_melville.all.mb58.gz 24.47MB Kongsberg multibeam vendor format
0901_20110417_073844_melville.all.mb58.gz 24.81MB Kongsberg multibeam vendor format
0902_20110417_080845_melville.all.mb58.gz 24.75MB Kongsberg multibeam vendor format
0903_20110417_083849_melville.all.mb58.gz 24.03MB Kongsberg multibeam vendor format
0904_20110417_090841_melville.all.mb58.gz 24.58MB Kongsberg multibeam vendor format
0905_20110417_093854_melville.all.mb58.gz 23.81MB Kongsberg multibeam vendor format
0906_20110417_100838_melville.all.mb58.gz 24.36MB Kongsberg multibeam vendor format
0907_20110417_103849_melville.all.mb58.gz 24.88MB Kongsberg multibeam vendor format
0908_20110417_110850_melville.all.mb58.gz 24.92MB Kongsberg multibeam vendor format
0909_20110417_113849_melville.all.mb58.gz 24.67MB Kongsberg multibeam vendor format
0910_20110417_120852_melville.all.mb58.gz 24.41MB Kongsberg multibeam vendor format
0911_20110417_123849_melville.all.mb58.gz 24.08MB Kongsberg multibeam vendor format
0912_20110417_130840_melville.all.mb58.gz 24.64MB Kongsberg multibeam vendor format
0913_20110417_133849_melville.all.mb58.gz 24.70MB Kongsberg multibeam vendor format
0914_20110417_140852_melville.all.mb58.gz 24.56MB Kongsberg multibeam vendor format
0915_20110417_143849_melville.all.mb58.gz 24.38MB Kongsberg multibeam vendor format
0916_20110417_150838_melville.all.mb58.gz 24.15MB Kongsberg multibeam vendor format
0917_20110417_153846_melville.all.mb58.gz 24.38MB Kongsberg multibeam vendor format
0918_20110417_160842_melville.all.mb58.gz 24.76MB Kongsberg multibeam vendor format
0919_20110417_163842_melville.all.mb58.gz 24.53MB Kongsberg multibeam vendor format
0920_20110417_170841_melville.all.mb58.gz 24.34MB Kongsberg multibeam vendor format
0921_20110417_173840_melville.all.mb58.gz 24.61MB Kongsberg multibeam vendor format
0922_20110417_180847_melville.all.mb58.gz 24.66MB Kongsberg multibeam vendor format
0923_20110417_183848_melville.all.mb58.gz 24.51MB Kongsberg multibeam vendor format
0924_20110417_190844_melville.all.mb58.gz 24.52MB Kongsberg multibeam vendor format
0925_20110417_193838_melville.all.mb58.gz 24.56MB Kongsberg multibeam vendor format
0926_20110417_200846_melville.all.mb58.gz 24.24MB Kongsberg multibeam vendor format
0927_20110417_203844_melville.all.mb58.gz 24.53MB Kongsberg multibeam vendor format
0928_20110417_210844_melville.all.mb58.gz 24.53MB Kongsberg multibeam vendor format
0929_20110417_213849_melville.all.mb58.gz 24.35MB Kongsberg multibeam vendor format
0930_20110417_220838_melville.all.mb58.gz 24.68MB Kongsberg multibeam vendor format
0931_20110417_223849_melville.all.mb58.gz 24.37MB Kongsberg multibeam vendor format
0932_20110417_230852_melville.all.mb58.gz 24.51MB Kongsberg multibeam vendor format
0933_20110417_233845_melville.all.mb58.gz 24.38MB Kongsberg multibeam vendor format
0934_20110418_000843_melville.all.mb58.gz 24.33MB Kongsberg multibeam vendor format
0935_20110418_003843_melville.all.mb58.gz 24.71MB Kongsberg multibeam vendor format
0936_20110418_010845_melville.all.mb58.gz 24.54MB Kongsberg multibeam vendor format
0937_20110418_013850_melville.all.mb58.gz 24.34MB Kongsberg multibeam vendor format
0938_20110418_020850_melville.all.mb58.gz 24.31MB Kongsberg multibeam vendor format
0939_20110418_023853_melville.all.mb58.gz 24.28MB Kongsberg multibeam vendor format
0940_20110418_030849_melville.all.mb58.gz 24.60MB Kongsberg multibeam vendor format
0941_20110418_033853_melville.all.mb58.gz 24.10MB Kongsberg multibeam vendor format
0942_20110418_040850_melville.all.mb58.gz 23.97MB Kongsberg multibeam vendor format
0943_20110418_043849_melville.all.mb58.gz 23.83MB Kongsberg multibeam vendor format
0944_20110418_050845_melville.all.mb58.gz 23.96MB Kongsberg multibeam vendor format
0945_20110418_053852_melville.all.mb58.gz 23.99MB Kongsberg multibeam vendor format
0946_20110418_060851_melville.all.mb58.gz 23.85MB Kongsberg multibeam vendor format
0947_20110418_063840_melville.all.mb58.gz 24.27MB Kongsberg multibeam vendor format
0948_20110418_070850_melville.all.mb58.gz 23.61MB Kongsberg multibeam vendor format
0949_20110418_073840_melville.all.mb58.gz 23.95MB Kongsberg multibeam vendor format
0950_20110418_080843_melville.all.mb58.gz 23.89MB Kongsberg multibeam vendor format
0951_20110418_083854_melville.all.mb58.gz 23.77MB Kongsberg multibeam vendor format
0952_20110418_090853_melville.all.mb58.gz 23.58MB Kongsberg multibeam vendor format
0953_20110418_093839_melville.all.mb58.gz 23.78MB Kongsberg multibeam vendor format
0954_20110418_100841_melville.all.mb58.gz 23.83MB Kongsberg multibeam vendor format
0955_20110418_103839_melville.all.mb58.gz 23.87MB Kongsberg multibeam vendor format
0956_20110418_110844_melville.all.mb58.gz 23.85MB Kongsberg multibeam vendor format
0957_20110418_113852_melville.all.mb58.gz 23.97MB Kongsberg multibeam vendor format
0958_20110418_120853_melville.all.mb58.gz 23.99MB Kongsberg multibeam vendor format
0959_20110418_123848_melville.all.mb58.gz 23.69MB Kongsberg multibeam vendor format
0960_20110418_130838_melville.all.mb58.gz 24.06MB Kongsberg multibeam vendor format
0961_20110418_133852_melville.all.mb58.gz 23.66MB Kongsberg multibeam vendor format
0962_20110418_140837_melville.all.mb58.gz 23.88MB Kongsberg multibeam vendor format
0963_20110418_143844_melville.all.mb58.gz 23.88MB Kongsberg multibeam vendor format
0964_20110418_150842_melville.all.mb58.gz 23.78MB Kongsberg multibeam vendor format
0965_20110418_153842_melville.all.mb58.gz 23.79MB Kongsberg multibeam vendor format
0966_20110418_160848_melville.all.mb58.gz 23.83MB Kongsberg multibeam vendor format
0967_20110418_163845_melville.all.mb58.gz 23.81MB Kongsberg multibeam vendor format
0968_20110418_170845_melville.all.mb58.gz 23.84MB Kongsberg multibeam vendor format
0969_20110418_173851_melville.all.mb58.gz 23.50MB Kongsberg multibeam vendor format
0970_20110418_180838_melville.all.mb58.gz 23.68MB Kongsberg multibeam vendor format
0971_20110418_183848_melville.all.mb58.gz 23.56MB Kongsberg multibeam vendor format
0972_20110418_190848_melville.all.mb58.gz 23.63MB Kongsberg multibeam vendor format
0973_20110418_193846_melville.all.mb58.gz 23.68MB Kongsberg multibeam vendor format
0974_20110418_200845_melville.all.mb58.gz 23.49MB Kongsberg multibeam vendor format
0975_20110418_203847_melville.all.mb58.gz 23.20MB Kongsberg multibeam vendor format
0976_20110418_210843_melville.all.mb58.gz 23.06MB Kongsberg multibeam vendor format
0977_20110418_213842_melville.all.mb58.gz 23.01MB Kongsberg multibeam vendor format
0978_20110418_220850_melville.all.mb58.gz 22.93MB Kongsberg multibeam vendor format
0979_20110418_223852_melville.all.mb58.gz 22.83MB Kongsberg multibeam vendor format
0980_20110418_230848_melville.all.mb58.gz 22.88MB Kongsberg multibeam vendor format
0981_20110418_233849_melville.all.mb58.gz 22.89MB Kongsberg multibeam vendor format
0982_20110419_000847_melville.all.mb58.gz 22.99MB Kongsberg multibeam vendor format
0983_20110419_003851_melville.all.mb58.gz 22.82MB Kongsberg multibeam vendor format
0984_20110419_010848_melville.all.mb58.gz 22.91MB Kongsberg multibeam vendor format
0985_20110419_013851_melville.all.mb58.gz 22.78MB Kongsberg multibeam vendor format
0986_20110419_020840_melville.all.mb58.gz 23.06MB Kongsberg multibeam vendor format
0987_20110419_023848_melville.all.mb58.gz 22.99MB Kongsberg multibeam vendor format
0988_20110419_030851_melville.all.mb58.gz 22.92MB Kongsberg multibeam vendor format
0989_20110419_033850_melville.all.mb58.gz 22.92MB Kongsberg multibeam vendor format
0990_20110419_040847_melville.all.mb58.gz 23.00MB Kongsberg multibeam vendor format
0991_20110419_043843_melville.all.mb58.gz 23.02MB Kongsberg multibeam vendor format
0992_20110419_050836_melville.all.mb58.gz 23.57MB Kongsberg multibeam vendor format
0993_20110419_053849_melville.all.mb58.gz 23.22MB Kongsberg multibeam vendor format
0994_20110419_060846_melville.all.mb58.gz 23.50MB Kongsberg multibeam vendor format
0995_20110419_063849_melville.all.mb58.gz 23.33MB Kongsberg multibeam vendor format
0996_20110419_070846_melville.all.mb58.gz 23.36MB Kongsberg multibeam vendor format
0997_20110419_073844_melville.all.mb58.gz 23.33MB Kongsberg multibeam vendor format
0998_20110419_080840_melville.all.mb58.gz 23.41MB Kongsberg multibeam vendor format
0999_20110419_083854_melville.all.mb58.gz 22.93MB Kongsberg multibeam vendor format
1000_20110419_090842_melville.all.mb58.gz 23.05MB Kongsberg multibeam vendor format
1001_20110419_093849_melville.all.mb58.gz 22.95MB Kongsberg multibeam vendor format
1002_20110419_100849_melville.all.mb58.gz 22.82MB Kongsberg multibeam vendor format
1003_20110419_103836_melville.all.mb58.gz 23.39MB Kongsberg multibeam vendor format
1004_20110419_110840_melville.all.mb58.gz 23.36MB Kongsberg multibeam vendor format
1005_20110419_113854_melville.all.mb58.gz 22.94MB Kongsberg multibeam vendor format
1006_20110419_120852_melville.all.mb58.gz 22.85MB Kongsberg multibeam vendor format
1007_20110419_123846_melville.all.mb58.gz 22.79MB Kongsberg multibeam vendor format
1008_20110419_130838_melville.all.mb58.gz 23.19MB Kongsberg multibeam vendor format
1009_20110419_133852_melville.all.mb58.gz 22.77MB Kongsberg multibeam vendor format
1010_20110419_140841_melville.all.mb58.gz 23.09MB Kongsberg multibeam vendor format
1011_20110419_143854_melville.all.mb58.gz 11.62MB Kongsberg multibeam vendor format
1012_20110420_132550_melville.all.mb58.gz 23.90MB Kongsberg multibeam vendor format
1013_20110420_135605_melville.all.mb58.gz 23.74MB Kongsberg multibeam vendor format
1014_20110420_142557_melville.all.mb58.gz 23.86MB Kongsberg multibeam vendor format
1015_20110420_145604_melville.all.mb58.gz 23.59MB Kongsberg multibeam vendor format
1016_20110420_152549_melville.all.mb58.gz 24.02MB Kongsberg multibeam vendor format
1017_20110420_155557_melville.all.mb58.gz 23.75MB Kongsberg multibeam vendor format
1018_20110420_162559_melville.all.mb58.gz 23.89MB Kongsberg multibeam vendor format
1019_20110420_165554_melville.all.mb58.gz 23.86MB Kongsberg multibeam vendor format
1020_20110420_172604_melville.all.mb58.gz 23.78MB Kongsberg multibeam vendor format
1021_20110420_175550_melville.all.mb58.gz 23.90MB Kongsberg multibeam vendor format
1022_20110420_182555_melville.all.mb58.gz 23.93MB Kongsberg multibeam vendor format
1023_20110420_185604_melville.all.mb58.gz 23.93MB Kongsberg multibeam vendor format
1024_20110420_192558_melville.all.mb58.gz 23.79MB Kongsberg multibeam vendor format
1025_20110420_195552_melville.all.mb58.gz 23.90MB Kongsberg multibeam vendor format
1026_20110420_202602_melville.all.mb58.gz 23.79MB Kongsberg multibeam vendor format
1027_20110420_205556_melville.all.mb58.gz 23.96MB Kongsberg multibeam vendor format
1028_20110420_212603_melville.all.mb58.gz 23.92MB Kongsberg multibeam vendor format
1029_20110420_215602_melville.all.mb58.gz 23.79MB Kongsberg multibeam vendor format
1030_20110420_222559_melville.all.mb58.gz 23.92MB Kongsberg multibeam vendor format
1031_20110420_225600_melville.all.mb58.gz 23.88MB Kongsberg multibeam vendor format
1032_20110420_232555_melville.all.mb58.gz 0.86MB Kongsberg multibeam vendor format

Metadata Files: 2

Files File Size Description
MV1104_Multibeam.xml NGDC created ISO metadata
xbt_bag_info.tar.gz 1.8KB Additional cruise information

Ancillary Files: 1

Files File Size Description
xbt.tar.gz 255.2KB Expendable Bathythermograph (XBT) data